Observation data for South Plains 3ENE on 11/19/2019      Previous  Date       Current Mesonet Observations  Soil Data  Daily Summary Page  Observations in Plain Language
KSP2 190600Z 26001KT 03/M02 A2999 RMK A01 T00301021  RH  069%=      5-min Rain = 0
KSP2 190601Z 25001KT 03/M02 A2999 RMK A01 T00311022  RH  069%=      5-min Rain = 0
KSP2 190602Z 26002KT 03/M02 A2999 RMK A01 T00311022  RH  068%=      5-min Rain = 0
KSP2 190603Z 26003KT 03/M02 A2999 RMK A01 T00321022  RH  068%=      5-min Rain = 0
KSP2 190604Z 26002KT 03/M02 A2999 RMK A01 T00321022  RH  067%=      5-min Rain = 0
KSP2 190605Z 26002KT 03/M02 A2999 RMK A01 T00321023  RH  067%=      5-min Rain = 0
KSP2 190606Z 27002KT 03/M02 A2999 RMK A01 T00331023  RH  067%=      5-min Rain = 0
KSP2 190607Z 27003KT 03/M02 A2999 RMK A01 T00331023  RH  067%=      5-min Rain = 0
KSP2 190608Z 27002KT 03/M02 A2999 RMK A01 T00321022  RH  068%=      5-min Rain = 0
KSP2 190609Z 26002KT 03/M02 A2999 RMK A01 T00311022  RH  068%=      5-min Rain = 0
KSP2 190610Z 26002KT 03/M02 A2999 RMK A01 T00311022  RH  068%=      5-min Rain = 0
KSP2 190611Z 26002KT 03/M02 A2999 RMK A01 T00301022  RH  069%=      5-min Rain = 0
KSP2 190612Z 26002KT 03/M02 A2999 RMK A01 T00301022  RH  069%=      5-min Rain = 0
KSP2 190613Z 27002KT 03/M02 A2999 RMK A01 T00291023  RH  069%=      5-min Rain = 0
KSP2 190614Z 27003KT 03/M02 A2999 RMK A01 T00291023  RH  068%=      5-min Rain = 0
KSP2 190615Z 27003KT 03/M02 A2999 RMK A01 T00291024  RH  068%=      5-min Rain = 0
KSP2 190616Z 27003KT 03/M03 A2999 RMK A01 T00291025  RH  068%=      5-min Rain = 0
KSP2 190617Z 26002KT 03/M02 A2999 RMK A01 T00291024  RH  068%=      5-min Rain = 0
KSP2 190618Z 25002KT 03/M02 A2999 RMK A01 T00291024  RH  068%=      5-min Rain = 0
KSP2 190619Z 25002KT 03/M02 A2999 RMK A01 T00281024  RH  069%=      5-min Rain = 0
KSP2 190620Z 25002KT 03/M02 A2999 RMK A01 T00271024  RH  069%=      5-min Rain = 0
KSP2 190621Z 25002KT 03/M03 A2999 RMK A01 T00261025  RH  069%=      5-min Rain = 0
KSP2 190622Z 26002KT 03/M03 A2999 RMK A01 T00251025  RH  069%=      5-min Rain = 0
KSP2 190623Z 27003KT 03/M03 A2999 RMK A01 T00261025  RH  069%=      5-min Rain = 0
KSP2 190624Z 28003KT 03/M03 A2999 RMK A01 T00271025  RH  069%=      5-min Rain = 0
KSP2 190625Z 28003KT 03/M03 A2999 RMK A01 T00271026  RH  068%=      5-min Rain = 0
KSP2 190626Z 28003KT 03/M03 A2999 RMK A01 T00281026  RH  068%=      5-min Rain = 0
KSP2 190627Z 28003KT 03/M03 A2999 RMK A01 T00281025  RH  068%=      5-min Rain = 0
KSP2 190628Z 28003KT 03/M03 A2999 RMK A01 T00281025  RH  068%=      5-min Rain = 0
KSP2 190629Z 28003KT 03/M02 A2999 RMK A01 T00281024  RH  069%=      5-min Rain = 0
KSP2 190630Z 28003KT 03/M02 A2999 RMK A01 T00261024  RH  069%=      5-min Rain = 0
KSP2 190631Z 27003KT 03/M02 A2999 RMK A01 T00251024  RH  070%=      5-min Rain = 0
KSP2 190632Z 27003KT 03/M02 A2999 RMK A01 T00261023  RH  070%=      5-min Rain = 0
KSP2 190633Z 25003KT 03/M02 A30 RMK A01 T00261023  RH  070%=      5-min Rain = 0
KSP2 190634Z 22003KT 03/M02 A30 RMK A01 T00261022  RH  071%=      5-min Rain = 0
KSP2 190635Z 21004KT 03/M02 A30 RMK A01 T00261022  RH  070%=      5-min Rain = 0
KSP2 190636Z 23004KT 03/M02 A30 RMK A01 T00251022  RH  071%=      5-min Rain = 0
KSP2 190637Z 25003KT 02/M02 A30 RMK A01 T00241022  RH  072%=      5-min Rain = 0
KSP2 190638Z 22004KT 02/M02 A30 RMK A01 T00241021  RH  072%=      5-min Rain = 0
KSP2 190639Z 21003KT 02/M02 A30 RMK A01 T00241021  RH  073%=      5-min Rain = 0
KSP2 190640Z 22003KT 02/M02 A30 RMK A01 T00241021  RH  072%=      5-min Rain = 0
KSP2 190641Z 23004KT 02/M02 A30 RMK A01 T00231023  RH  071%=      5-min Rain = 0
KSP2 190642Z 22004KT 02/M02 A30 RMK A01 T00231024  RH  071%=      5-min Rain = 0
KSP2 190643Z 23003KT 02/M03 A30 RMK A01 T00231025  RH  070%=      5-min Rain = 0
KSP2 190644Z 23003KT 02/M03 A30 RMK A01 T00231026  RH  070%=      5-min Rain = 0
KSP2 190645Z 24004KT 02/M03 A30 RMK A01 T00221027  RH  070%=      5-min Rain = 0
KSP2 190646Z 24003KT 02/M03 A30 RMK A01 T00211028  RH  070%=      5-min Rain = 0
KSP2 190647Z 25003KT 02/M03 A30 RMK A01 T00211028  RH  070%=      5-min Rain = 0
KSP2 190648Z 25002KT 02/M03 A30 RMK A01 T00211028  RH  070%=      5-min Rain = 0
KSP2 190649Z 25001KT 02/M03 A30 RMK A01 T00211028  RH  070%=      5-min Rain = 0
KSP2 190650Z 25001KT 02/M03 A30 RMK A01 T00221028  RH  070%=      5-min Rain = 0
KSP2 190651Z 24001KT 02/M03 A30 RMK A01 T00241027  RH  069%=      5-min Rain = 0
KSP2 190652Z 24001KT 03/M03 A30 RMK A01 T00261027  RH  068%=      5-min Rain = 0
KSP2 190653Z 24002KT 03/M03 A30 RMK A01 T00271028  RH  067%=      5-min Rain = 0
KSP2 190654Z 24002KT 03/M03 A2999 RMK A01 T00281028  RH  066%=      5-min Rain = 0
KSP2 190655Z 25003KT 03/M03 A2999 RMK A01 T00291028  RH  066%=      5-min Rain = 0
KSP2 190656Z 26003KT 03/M03 A2999 RMK A01 T00301028  RH  066%=      5-min Rain = 0
KSP2 190657Z 26002KT 03/M03 A2999 RMK A01 T00311027  RH  066%=      5-min Rain = 0
KSP2 190658Z 27002KT 03/M03 A2999 RMK A01 T00311028  RH  065%=      5-min Rain = 0
KSP2 190659Z 28002KT 03/M03 A2999 RMK A01 T00311028  RH  065%=      5-min Rain = 0
KSP2 190700Z 29002KT 03/M03 A2999 RMK A01 T00321028  RH  065%=      5-min Rain = 0
KSP2 190701Z 29002KT 03/M03 A2999 RMK A01 T00311028  RH  065%=      5-min Rain = 0
KSP2 190702Z 28002KT 03/M03 A2999 RMK A01 T00301028  RH  066%=      5-min Rain = 0
KSP2 190703Z 28002KT 03/M03 A2999 RMK A01 T00291028  RH  066%=      5-min Rain = 0
KSP2 190704Z 27001KT 03/M03 A2999 RMK A01 T00291027  RH  067%=      5-min Rain = 0
KSP2 190705Z 27001KT 03/M03 A2999 RMK A01 T00281027  RH  067%=      5-min Rain = 0
KSP2 190706Z 26001KT 03/M03 A2999 RMK A01 T00281027  RH  067%=      5-min Rain = 0
KSP2 190707Z 27002KT 03/M03 A2999 RMK A01 T00271026  RH  068%=      5-min Rain = 0
KSP2 190708Z 27002KT 03/M03 A2999 RMK A01 T00271025  RH  068%=      5-min Rain = 0
KSP2 190709Z 27001KT 03/M03 A2999 RMK A01 T00271025  RH  069%=      5-min Rain = 0
KSP2 190710Z 27001KT 03/M03 A2999 RMK A01 T00271025  RH  069%=      5-min Rain = 0
KSP2 190711Z 27001KT 03/M03 A2999 RMK A01 T00271026  RH  068%=      5-min Rain = 0
KSP2 190712Z 27001KT 03/M03 A2999 RMK A01 T00271027  RH  067%=      5-min Rain = 0
KSP2 190713Z 27001KT 03/M03 A2999 RMK A01 T00281027  RH  067%=      5-min Rain = 0
KSP2 190714Z 28000KT 03/M03 A2999 RMK A01 T00281026  RH  067%=      5-min Rain = 0
KSP2 190715Z 00000KT 03/M03 A2999 RMK A01 T00281026  RH  068%=      5-min Rain = 0
KSP2 190716Z 28000KT 03/M03 A2999 RMK A01 T00281025  RH  068%=      5-min Rain = 0
KSP2 190717Z 27001KT 03/M03 A2999 RMK A01 T00271026  RH  068%=      5-min Rain = 0
KSP2 190718Z 25000KT 03/M03 A2999 RMK A01 T00251027  RH  068%=      5-min Rain = 0
KSP2 190719Z 25001KT 02/M03 A2999 RMK A01 T00241027  RH  069%=      5-min Rain = 0
KSP2 190720Z 25001KT 02/M03 A2999 RMK A01 T00221027  RH  070%=      5-min Rain = 0
KSP2 190721Z 25001KT 02/M03 A2999 RMK A01 T00211027  RH  070%=      5-min Rain = 0
KSP2 190722Z 25001KT 02/M03 A2999 RMK A01 T00201026  RH  071%=      5-min Rain = 0
KSP2 190723Z 25001KT 02/M03 A2999 RMK A01 T00191026  RH  072%=      5-min Rain = 0
KSP2 190724Z 25001KT 02/M03 A2999 RMK A01 T00191026  RH  072%=      5-min Rain = 0
KSP2 190725Z 25001KT 02/M03 A2999 RMK A01 T00181026  RH  072%=      5-min Rain = 0
KSP2 190726Z 25000KT 02/M03 A2999 RMK A01 T00181026  RH  073%=      5-min Rain = 0
KSP2 190727Z 25000KT 02/M03 A2999 RMK A01 T00161028  RH  073%=      5-min Rain = 0
KSP2 190728Z 25000KT 02/M03 A2999 RMK A01 T00151026  RH  074%=      5-min Rain = 0
KSP2 190729Z 00000KT 02/M03 A2999 RMK A01 T00151026  RH  074%=      5-min Rain = 0
KSP2 190730Z 00000KT 02/M03 A2999 RMK A01 T00151026  RH  074%=      5-min Rain = 0
KSP2 190731Z 00000KT 02/M03 A2999 RMK A01 T00151026  RH  074%=      5-min Rain = 0
KSP2 190732Z 00000KT 02/M03 A2998 RMK A01 T00161027  RH  073%=      5-min Rain = 0
KSP2 190733Z 00000KT 02/M03 A2998 RMK A01 T00161027  RH  073%=      5-min Rain = 0
KSP2 190734Z 00000KT 02/M03 A2998 RMK A01 T00161027  RH  073%=      5-min Rain = 0
KSP2 190735Z 00000KT 02/M03 A2998 RMK A01 T00171026  RH  073%=      5-min Rain = 0
KSP2 190736Z 00000KT 02/M03 A2998 RMK A01 T00181026  RH  072%=      5-min Rain = 0
KSP2 190737Z 25000KT 02/M03 A2998 RMK A01 T00191026  RH  072%=      5-min Rain = 0
KSP2 190738Z 25000KT 02/M03 A2998 RMK A01 T00191026  RH  072%=      5-min Rain = 0
KSP2 190739Z 00000KT 02/M03 A2998 RMK A01 T00191026  RH  072%=      5-min Rain = 0
KSP2 190740Z 00000KT 02/M03 A2998 RMK A01 T00201025  RH  072%=      5-min Rain = 0
KSP2 190741Z 00000KT 02/M03 A2998 RMK A01 T00201025  RH  072%=      5-min Rain = 0
KSP2 190742Z 00000KT 02/M03 A2998 RMK A01 T00201026  RH  072%=      5-min Rain = 0
KSP2 190743Z 00000KT 02/M03 A2998 RMK A01 T00191027  RH  072%=      5-min Rain = 0
KSP2 190744Z 00000KT 02/M03 A2998 RMK A01 T00181028  RH  072%=      5-min Rain = 0
KSP2 190745Z 00000KT 02/M03 A2998 RMK A01 T00171029  RH  072%=      5-min Rain = 0
KSP2 190746Z 00000KT 02/M03 A2998 RMK A01 T00151030  RH  072%=      5-min Rain = 0
KSP2 190747Z 00000KT 01/M03 A2998 RMK A01 T00141030  RH  072%=      5-min Rain = 0
KSP2 190748Z 00000KT 01/M03 A2998 RMK A01 T00141028  RH  073%=      5-min Rain = 0
KSP2 190749Z 00000KT 01/M03 A2998 RMK A01 T00141027  RH  074%=      5-min Rain = 0
KSP2 190750Z 00000KT 01/M03 A2998 RMK A01 T00141028  RH  074%=      5-min Rain = 0
KSP2 190751Z 00000KT 01/M03 A2998 RMK A01 T00141027  RH  074%=      5-min Rain = 0
KSP2 190752Z 00000KT 01/M03 A2998 RMK A01 T00141027  RH  074%=      5-min Rain = 0
KSP2 190753Z 00000KT 01/M03 A2998 RMK A01 T00141028  RH  074%=      5-min Rain = 0
KSP2 190754Z 25000KT 01/M03 A2998 RMK A01 T00131027  RH  074%=      5-min Rain = 0
KSP2 190755Z 25001KT 01/M03 A2998 RMK A01 T00131027  RH  075%=      5-min Rain = 0
KSP2 190756Z 25001KT 01/M03 A2998 RMK A01 T00121027  RH  075%=      5-min Rain = 0
KSP2 190757Z 27001KT 01/M03 A2998 RMK A01 T00121027  RH  075%=      5-min Rain = 0
KSP2 190758Z 27002KT 01/M03 A2998 RMK A01 T00121027  RH  075%=      5-min Rain = 0
KSP2 190759Z 27002KT 01/M03 A2998 RMK A01 T00131027  RH  075%=      5-min Rain = 0
KSP2 190800Z 27002KT 01/M03 A2998 RMK A01 T00131027  RH  074%=      5-min Rain = 0
KSP2 190801Z 27002KT 01/M03 A2998 RMK A01 T00141027  RH  074%=      5-min Rain = 0
KSP2 190802Z 27003KT 02/M03 A2998 RMK A01 T00151026  RH  074%=      5-min Rain = 0
KSP2 190803Z 27003KT 02/M03 A2998 RMK A01 T00171025  RH  074%=      5-min Rain = 0
KSP2 190804Z 26003KT 02/M02 A2998 RMK A01 T00191024  RH  073%=      5-min Rain = 0
KSP2 190805Z 27004KT 02/M02 A2998 RMK A01 T00201024  RH  073%=      5-min Rain = 0
KSP2 190806Z 26004KT 02/M02 A2998 RMK A01 T00211024  RH  072%=      5-min Rain = 0
KSP2 190807Z 26004KT 02/M02 A2998 RMK A01 T00221024  RH  072%=      5-min Rain = 0
KSP2 190808Z 27004KT 02/M02 A2998 RMK A01 T00231023  RH  072%=      5-min Rain = 0
KSP2 190809Z 26004KT 02/M02 A2998 RMK A01 T00241020  RH  073%=      5-min Rain = 0
KSP2 190810Z 26004KT 02/M02 A2998 RMK A01 T00241018  RH  074%=      5-min Rain = 0
KSP2 190811Z 26004KT 02/M02 A2998 RMK A01 T00241018  RH  074%=      5-min Rain = 0
KSP2 190812Z 26004KT 02/M02 A2998 RMK A01 T00241018  RH  074%=      5-min Rain = 0
KSP2 190813Z 25004KT 02/M02 A2998 RMK A01 T00241019  RH  073%=      5-min Rain = 0
KSP2 190814Z 25003KT 03/M02 A2998 RMK A01 T00251019  RH  073%=      5-min Rain = 0
KSP2 190815Z 24003KT 03/M02 A2998 RMK A01 T00261019  RH  072%=      5-min Rain = 0
KSP2 190816Z 23003KT 03/M02 A2998 RMK A01 T00261020  RH  072%=      5-min Rain = 0
KSP2 190817Z 24003KT 03/M02 A2999 RMK A01 T00261020  RH  072%=      5-min Rain = 0
KSP2 190818Z 25003KT 03/M02 A2999 RMK A01 T00251021  RH  071%=      5-min Rain = 0
KSP2 190819Z 25003KT 02/M02 A2999 RMK A01 T00241023  RH  071%=      5-min Rain = 0
KSP2 190820Z 25003KT 02/M02 A2999 RMK A01 T00241023  RH  071%=      5-min Rain = 0
KSP2 190821Z 26003KT 02/M02 A2999 RMK A01 T00241024  RH  071%=      5-min Rain = 0
KSP2 190822Z 26003KT 02/M03 A2999 RMK A01 T00241025  RH  070%=      5-min Rain = 0
KSP2 190823Z 26003KT 02/M03 A2999 RMK A01 T00241025  RH  070%=      5-min Rain = 0
KSP2 190824Z 26003KT 02/M02 A2999 RMK A01 T00241024  RH  070%=      5-min Rain = 0
KSP2 190825Z 27003KT 02/M03 A2999 RMK A01 T00241025  RH  070%=      5-min Rain = 0
KSP2 190826Z 27003KT 03/M03 A2999 RMK A01 T00251025  RH  070%=      5-min Rain = 0
KSP2 190827Z 27003KT 02/M02 A2999 RMK A01 T00241024  RH  070%=      5-min Rain = 0
KSP2 190828Z 27003KT 02/M03 A2999 RMK A01 T00241025  RH  070%=      5-min Rain = 0
KSP2 190829Z 27003KT 02/M03 A2999 RMK A01 T00241025  RH  070%=      5-min Rain = 0
KSP2 190830Z 27003KT 02/M03 A2999 RMK A01 T00231025  RH  071%=      5-min Rain = 0
KSP2 190831Z 27003KT 02/M03 A2999 RMK A01 T00231025  RH  071%=      5-min Rain = 0
KSP2 190832Z 27003KT 02/M02 A2999 RMK A01 T00231024  RH  071%=      5-min Rain = 0
KSP2 190833Z 27003KT 02/M02 A2999 RMK A01 T00231024  RH  071%=      5-min Rain = 0
KSP2 190834Z 27003KT 02/M02 A2999 RMK A01 T00231024  RH  071%=      5-min Rain = 0
KSP2 190835Z 27004KT 02/M02 A2999 RMK A01 T00231024  RH  071%=      5-min Rain = 0
KSP2 190836Z 28004KT 02/M02 A2999 RMK A01 T00241024  RH  071%=      5-min Rain = 0
KSP2 190837Z 28004KT 03/M02 A2999 RMK A01 T00251024  RH  070%=      5-min Rain = 0
KSP2 190838Z 28004KT 03/M02 A2999 RMK A01 T00251024  RH  070%=      5-min Rain = 0
KSP2 190839Z 28003KT 03/M03 A2999 RMK A01 T00261025  RH  069%=      5-min Rain = 0
KSP2 190840Z 28003KT 03/M03 A2999 RMK A01 T00261026  RH  069%=      5-min Rain = 0
KSP2 190841Z 28003KT 03/M03 A2999 RMK A01 T00261027  RH  068%=      5-min Rain = 0
KSP2 190842Z 28003KT 03/M03 A2999 RMK A01 T00261027  RH  068%=      5-min Rain = 0
KSP2 190843Z 28003KT 03/M03 A2999 RMK A01 T00271027  RH  068%=      5-min Rain = 0
KSP2 190844Z 28003KT 03/M03 A2999 RMK A01 T00281026  RH  068%=      5-min Rain = 0
KSP2 190845Z 28004KT 03/M03 A2999 RMK A01 T00291026  RH  067%=      5-min Rain = 0
KSP2 190846Z 27003KT 03/M03 A2999 RMK A01 T00291026  RH  067%=      5-min Rain = 0
KSP2 190847Z 28003KT 03/M03 A2999 RMK A01 T00301025  RH  067%=      5-min Rain = 0
KSP2 190848Z 29004KT 03/M03 A2999 RMK A01 T00311025  RH  067%=      5-min Rain = 0
KSP2 190849Z 29004KT 03/M03 A2999 RMK A01 T00311025  RH  067%=      5-min Rain = 0
KSP2 190850Z 29004KT 03/M03 A2999 RMK A01 T00321025  RH  067%=      5-min Rain = 0
KSP2 190851Z 28003KT 03/M03 A2999 RMK A01 T00321025  RH  066%=      5-min Rain = 0
KSP2 190852Z 28003KT 03/M03 A2999 RMK A01 T00321025  RH  066%=      5-min Rain = 0
KSP2 190853Z 28003KT 03/M03 A2999 RMK A01 T00321025  RH  066%=      5-min Rain = 0
KSP2 190854Z 28003KT 03/M03 A2999 RMK A01 T00311025  RH  067%=      5-min Rain = 0
KSP2 190855Z 28003KT 03/M03 A2999 RMK A01 T00311025  RH  067%=      5-min Rain = 0
KSP2 190856Z 28002KT 03/M03 A2999 RMK A01 T00301026  RH  067%=      5-min Rain = 0
KSP2 190857Z 28002KT 03/M03 A2999 RMK A01 T00291026  RH  067%=      5-min Rain = 0
KSP2 190858Z 28002KT 03/M03 A2999 RMK A01 T00281026  RH  067%=      5-min Rain = 0
KSP2 190859Z 28003KT 03/M03 A2999 RMK A01 T00281027  RH  067%=      5-min Rain = 0
KSP2 190900Z 27003KT 03/M03 A2999 RMK A01 T00281027  RH  067%=      5-min Rain = 0
KSP2 190901Z 28003KT 03/M03 A2999 RMK A01 T00281027  RH  067%=      5-min Rain = 0
KSP2 190902Z 28003KT 03/M03 A2999 RMK A01 T00281027  RH  067%=      5-min Rain = 0
KSP2 190903Z 28003KT 03/M03 A2999 RMK A01 T00291027  RH  067%=      5-min Rain = 0
KSP2 190904Z 28003KT 03/M03 A2999 RMK A01 T00291027  RH  067%=      5-min Rain = 0
KSP2 190905Z 28003KT 03/M03 A2999 RMK A01 T00291026  RH  067%=      5-min Rain = 0
KSP2 190906Z 28002KT 03/M03 A2999 RMK A01 T00291026  RH  067%=      5-min Rain = 0
KSP2 190907Z 27002KT 03/M03 A2999 RMK A01 T00281026  RH  067%=      5-min Rain = 0
KSP2 190908Z 27002KT 03/M03 A2999 RMK A01 T00281026  RH  067%=      5-min Rain = 0
KSP2 190909Z 27001KT 03/M03 A2999 RMK A01 T00281026  RH  068%=      5-min Rain = 0
KSP2 190910Z 27002KT 03/M03 A2999 RMK A01 T00271026  RH  068%=      5-min Rain = 0
KSP2 190911Z 26001KT 03/M03 A2999 RMK A01 T00261025  RH  069%=      5-min Rain = 0
KSP2 190912Z 27002KT 03/M02 A2999 RMK A01 T00271024  RH  069%=      5-min Rain = 0
KSP2 190913Z 28002KT 03/M02 A2999 RMK A01 T00261024  RH  069%=      5-min Rain = 0
KSP2 190914Z 29003KT 03/M02 A2999 RMK A01 T00271023  RH  069%=      5-min Rain = 0
KSP2 190915Z 28002KT 03/M02 A2999 RMK A01 T00281023  RH  069%=      5-min Rain = 0
KSP2 190916Z 26002KT 03/M02 A2999 RMK A01 T00281023  RH  069%=      5-min Rain = 0
KSP2 190917Z 26002KT 03/M03 A2999 RMK A01 T00261025  RH  069%=      5-min Rain = 0
KSP2 190918Z 27002KT 02/M03 A2999 RMK A01 T00231026  RH  071%=      5-min Rain = 0
KSP2 190919Z 27002KT 02/M03 A2999 RMK A01 T00201025  RH  072%=      5-min Rain = 0
KSP2 190920Z 27002KT 02/M02 A2999 RMK A01 T00201024  RH  073%=      5-min Rain = 0
KSP2 190921Z 27002KT 02/M02 A2999 RMK A01 T00201024  RH  073%=      5-min Rain = 0
KSP2 190922Z 28003KT 02/M02 A2999 RMK A01 T00211023  RH  073%=      5-min Rain = 0
KSP2 190923Z 28003KT 02/M02 A2999 RMK A01 T00221023  RH  072%=      5-min Rain = 0
KSP2 190924Z 28003KT 02/M02 A2999 RMK A01 T00231023  RH  071%=      5-min Rain = 0
KSP2 190925Z 27002KT 02/M02 A2999 RMK A01 T00231024  RH  071%=      5-min Rain = 0
KSP2 190926Z 27002KT 02/M02 A2999 RMK A01 T00231024  RH  071%=      5-min Rain = 0
KSP2 190927Z 27002KT 02/M02 A2999 RMK A01 T00231024  RH  071%=      5-min Rain = 0
KSP2 190928Z 27003KT 02/M02 A2999 RMK A01 T00231024  RH  071%=      5-min Rain = 0
KSP2 190929Z 27003KT 02/M03 A2999 RMK A01 T00241025  RH  070%=      5-min Rain = 0
KSP2 190930Z 26003KT 03/M02 A2999 RMK A01 T00251024  RH  070%=      5-min Rain = 0
KSP2 190931Z 25002KT 03/M02 A30 RMK A01 T00251024  RH  070%=      5-min Rain = 0
KSP2 190932Z 25002KT 02/M02 A30 RMK A01 T00241023  RH  071%=      5-min Rain = 0
KSP2 190933Z 25002KT 02/M02 A30 RMK A01 T00231023  RH  072%=      5-min Rain = 0
KSP2 190934Z 27002KT 02/M02 A30 RMK A01 T00221022  RH  072%=      5-min Rain = 0
KSP2 190935Z 28002KT 02/M02 A30 RMK A01 T00221022  RH  073%=      5-min Rain = 0
KSP2 190936Z 28002KT 02/M02 A2999 RMK A01 T00221022  RH  073%=      5-min Rain = 0
KSP2 190937Z 29002KT 02/M02 A2999 RMK A01 T00221022  RH  073%=      5-min Rain = 0
KSP2 190938Z 29002KT 02/M02 A2999 RMK A01 T00221023  RH  072%=      5-min Rain = 0
KSP2 190939Z 28002KT 02/M02 A30 RMK A01 T00221023  RH  072%=      5-min Rain = 0
KSP2 190940Z 26003KT 02/M02 A30 RMK A01 T00231023  RH  072%=      5-min Rain = 0
KSP2 190941Z 25003KT 02/M02 A30 RMK A01 T00231023  RH  071%=      5-min Rain = 0
KSP2 190942Z 25003KT 02/M02 A30 RMK A01 T00241023  RH  071%=      5-min Rain = 0
KSP2 190943Z 26003KT 02/M02 A30 RMK A01 T00241022  RH  072%=      5-min Rain = 0
KSP2 190944Z 26003KT 02/M02 A30 RMK A01 T00241022  RH  072%=      5-min Rain = 0
KSP2 190945Z 25002KT 02/M02 A30 RMK A01 T00241022  RH  072%=      5-min Rain = 0
KSP2 190946Z 24002KT 02/M02 A30 RMK A01 T00241022  RH  072%=      5-min Rain = 0
KSP2 190947Z 24002KT 02/M02 A30 RMK A01 T00231022  RH  072%=      5-min Rain = 0
KSP2 190948Z 24002KT 02/M02 A30 RMK A01 T00221022  RH  072%=      5-min Rain = 0
KSP2 190949Z 24003KT 02/M02 A30 RMK A01 T00211023  RH  073%=      5-min Rain = 0
KSP2 190950Z 24003KT 02/M02 A30 RMK A01 T00201023  RH  073%=      5-min Rain = 0
KSP2 190951Z 24003KT 02/M02 A30 RMK A01 T00201023  RH  073%=      5-min Rain = 0
KSP2 190952Z 24003KT 02/M02 A30 RMK A01 T00201023  RH  073%=      5-min Rain = 0
KSP2 190953Z 24002KT 02/M02 A30 RMK A01 T00191024  RH  073%=      5-min Rain = 0
KSP2 190954Z 23002KT 02/M03 A30 RMK A01 T00181025  RH  073%=      5-min Rain = 0
KSP2 190955Z 22001KT 02/M02 A30 RMK A01 T00181024  RH  074%=      5-min Rain = 0
KSP2 190956Z 22001KT 02/M02 A30 RMK A01 T00171024  RH  074%=      5-min Rain = 0
KSP2 190957Z 23002KT 02/M03 A30 RMK A01 T00171025  RH  074%=      5-min Rain = 0
KSP2 190958Z 22002KT 02/M03 A30 RMK A01 T00171025  RH  074%=      5-min Rain = 0
KSP2 190959Z 24002KT 02/M03 A30 RMK A01 T00171026  RH  073%=      5-min Rain = 0
KSP2 191000Z 25002KT 02/M03 A30 RMK A01 T00171026  RH  073%=      5-min Rain = 0
KSP2 191001Z 26002KT 02/M03 A30 RMK A01 T00171026  RH  073%=      5-min Rain = 0
KSP2 191002Z 25002KT 02/M03 A30 RMK A01 T00181026  RH  073%=      5-min Rain = 0
KSP2 191003Z 26002KT 02/M03 A30 RMK A01 T00181026  RH  072%=      5-min Rain = 0
KSP2 191004Z 26002KT 02/M03 A30 RMK A01 T00191027  RH  072%=      5-min Rain = 0
KSP2 191005Z 27002KT 02/M03 A30 RMK A01 T00191027  RH  072%=      5-min Rain = 0
KSP2 191006Z 27002KT 02/M03 A30 RMK A01 T00191027  RH  072%=      5-min Rain = 0
KSP2 191007Z 26002KT 02/M03 A30 RMK A01 T00191027  RH  072%=      5-min Rain = 0
KSP2 191008Z 26002KT 02/M03 A30 RMK A01 T00191027  RH  072%=      5-min Rain = 0
KSP2 191009Z 27001KT 02/M03 A30 RMK A01 T00191027  RH  072%=      5-min Rain = 0
KSP2 191010Z 28001KT 02/M03 A30 RMK A01 T00191027  RH  072%=      5-min Rain = 0
KSP2 191011Z 28001KT 02/M03 A30 RMK A01 T00181027  RH  072%=      5-min Rain = 0
KSP2 191012Z 27001KT 02/M03 A30 RMK A01 T00171027  RH  072%=      5-min Rain = 0
KSP2 191013Z 28001KT 02/M03 A30 RMK A01 T00171027  RH  072%=      5-min Rain = 0
KSP2 191014Z 28001KT 02/M03 A30 RMK A01 T00171027  RH  073%=      5-min Rain = 0
KSP2 191015Z 29002KT 02/M03 A30 RMK A01 T00161027  RH  073%=      5-min Rain = 0
KSP2 191016Z 28001KT 02/M03 A30 RMK A01 T00151027  RH  073%=      5-min Rain = 0
KSP2 191017Z 28002KT 02/M03 A30 RMK A01 T00151027  RH  074%=      5-min Rain = 0
KSP2 191018Z 28002KT 02/M03 A30 RMK A01 T00151027  RH  074%=      5-min Rain = 0
KSP2 191019Z 28002KT 02/M03 A30 RMK A01 T00151027  RH  074%=      5-min Rain = 0
KSP2 191020Z 29002KT 02/M03 A30 RMK A01 T00151027  RH  074%=      5-min Rain = 0
KSP2 191021Z 29002KT 02/M03 A30 RMK A01 T00161026  RH  074%=      5-min Rain = 0
KSP2 191022Z 29002KT 02/M03 A2999 RMK A01 T00151026  RH  074%=      5-min Rain = 0
KSP2 191023Z 28002KT 02/M03 A2999 RMK A01 T00151027  RH  074%=      5-min Rain = 0
KSP2 191024Z 28002KT 01/M03 A2999 RMK A01 T00131029  RH  074%=      5-min Rain = 0
KSP2 191025Z 29002KT 01/M03 A2999 RMK A01 T00121028  RH  074%=      5-min Rain = 0
KSP2 191026Z 29002KT 01/M03 A2999 RMK A01 T00111028  RH  075%=      5-min Rain = 0
KSP2 191027Z 29002KT 01/M03 A2999 RMK A01 T00101028  RH  076%=      5-min Rain = 0
KSP2 191028Z 29002KT 01/M03 A2999 RMK A01 T00111028  RH  076%=      5-min Rain = 0
KSP2 191029Z 29002KT 01/M03 A2999 RMK A01 T00111028  RH  075%=      5-min Rain = 0
KSP2 191030Z 29002KT 01/M03 A2999 RMK A01 T00111028  RH  075%=      5-min Rain = 0
KSP2 191031Z 28002KT 01/M03 A2999 RMK A01 T00111028  RH  075%=      5-min Rain = 0
KSP2 191032Z 28002KT 01/M03 A2999 RMK A01 T00121027  RH  075%=      5-min Rain = 0
KSP2 191033Z 27002KT 01/M03 A2999 RMK A01 T00121028  RH  075%=      5-min Rain = 0
KSP2 191034Z 26002KT 01/M03 A2999 RMK A01 T00111028  RH  075%=      5-min Rain = 0
KSP2 191035Z 26002KT 01/M03 A2999 RMK A01 T00101030  RH  075%=      5-min Rain = 0
KSP2 191036Z 26003KT 01/M03 A2999 RMK A01 T00081031  RH  075%=      5-min Rain = 0
KSP2 191037Z 26003KT 01/M03 A2999 RMK A01 T00071030  RH  076%=      5-min Rain = 0
KSP2 191038Z 27003KT 01/M03 A2999 RMK A01 T00081029  RH  076%=      5-min Rain = 0
KSP2 191039Z 27002KT 01/M03 A2999 RMK A01 T00091029  RH  076%=      5-min Rain = 0
KSP2 191040Z 28002KT 01/M03 A2999 RMK A01 T00101029  RH  075%=      5-min Rain = 0
KSP2 191041Z 28002KT 01/M03 A2999 RMK A01 T00101030  RH  075%=      5-min Rain = 0
KSP2 191042Z 27002KT 01/M03 A2999 RMK A01 T00091030  RH  075%=      5-min Rain = 0
KSP2 191043Z 26002KT 01/M03 A2999 RMK A01 T00081030  RH  076%=      5-min Rain = 0
KSP2 191044Z 25002KT 01/M03 A2999 RMK A01 T00081030  RH  076%=      5-min Rain = 0
KSP2 191045Z 25002KT 01/M03 A2999 RMK A01 T00081030  RH  076%=      5-min Rain = 0
KSP2 191046Z 24002KT 01/M03 A2999 RMK A01 T00081030  RH  076%=      5-min Rain = 0
KSP2 191047Z 24002KT 01/M03 A2999 RMK A01 T00071030  RH  076%=      5-min Rain = 0
KSP2 191048Z 24002KT 01/M03 A2999 RMK A01 T00061030  RH  077%=      5-min Rain = 0
KSP2 191049Z 25002KT 01/M03 A2999 RMK A01 T00051029  RH  078%=      5-min Rain = 0
KSP2 191050Z 24002KT 01/M03 A2999 RMK A01 T00051028  RH  078%=      5-min Rain = 0
KSP2 191051Z 24002KT 01/M03 A2999 RMK A01 T00051028  RH  079%=      5-min Rain = 0
KSP2 191052Z 23002KT 01/M03 A2999 RMK A01 T00051027  RH  079%=      5-min Rain = 0
KSP2 191053Z 23002KT 00/M03 A2999 RMK A01 T00041028  RH  079%=      5-min Rain = 0
KSP2 191054Z 23001KT 00/M03 A2999 RMK A01 T00041027  RH  080%=      5-min Rain = 0
KSP2 191055Z 23001KT 00/M03 A2998 RMK A01 T00041027  RH  080%=      5-min Rain = 0
KSP2 191056Z 24001KT 00/M03 A2998 RMK A01 T00041026  RH  080%=      5-min Rain = 0
KSP2 191057Z 23001KT 00/M03 A2998 RMK A01 T00041026  RH  081%=      5-min Rain = 0
KSP2 191058Z 23001KT 00/M03 A2998 RMK A01 T00031026  RH  081%=      5-min Rain = 0
KSP2 191059Z 23001KT 00/M03 A2998 RMK A01 T00031027  RH  080%=      5-min Rain = 0
KSP2 191100Z 23001KT 00/M03 A2998 RMK A01 T00031027  RH  080%=      5-min Rain = 0
KSP2 191101Z 23001KT 00/M03 A2998 RMK A01 T00031028  RH  080%=      5-min Rain = 0
KSP2 191102Z 23001KT 00/M03 A2998 RMK A01 T00041027  RH  080%=      5-min Rain = 0
KSP2 191103Z 22001KT 01/M03 A2998 RMK A01 T00051027  RH  079%=      5-min Rain = 0
KSP2 191104Z 21001KT 01/M03 A2998 RMK A01 T00061028  RH  078%=      5-min Rain = 0
KSP2 191105Z 21001KT 01/M03 A2998 RMK A01 T00061029  RH  078%=      5-min Rain = 0
KSP2 191106Z 21000KT 01/M03 A2998 RMK A01 T00061029  RH  077%=      5-min Rain = 0
KSP2 191107Z 21000KT 01/M03 A2998 RMK A01 T00061029  RH  077%=      5-min Rain = 0
KSP2 191108Z 21001KT 01/M03 A2998 RMK A01 T00051030  RH  077%=      5-min Rain = 0
KSP2 191109Z 21000KT 01/M03 A2998 RMK A01 T00051029  RH  078%=      5-min Rain = 0
KSP2 191110Z 00000KT 01/M03 A2998 RMK A01 T00051029  RH  078%=      5-min Rain = 0
KSP2 191111Z 00000KT 00/M03 A2998 RMK A01 T00041029  RH  078%=      5-min Rain = 0
KSP2 191112Z 00000KT 00/M03 A2998 RMK A01 T00041029  RH  078%=      5-min Rain = 0
KSP2 191113Z 00000KT 00/M03 A2998 RMK A01 T00041029  RH  078%=      5-min Rain = 0
KSP2 191114Z 00000KT 00/M03 A2998 RMK A01 T00041029  RH  079%=      5-min Rain = 0
KSP2 191115Z 21000KT 00/M03 A2998 RMK A01 T00031029  RH  079%=      5-min Rain = 0
KSP2 191116Z 21000KT 00/M03 A2998 RMK A01 T00031029  RH  079%=      5-min Rain = 0
KSP2 191117Z 00000KT 00/M03 A2998 RMK A01 T00031029  RH  079%=      5-min Rain = 0
KSP2 191118Z 00000KT 00/M03 A2997 RMK A01 T00031029  RH  079%=      5-min Rain = 0
KSP2 191119Z 00000KT 00/M03 A2997 RMK A01 T00021030  RH  079%=      5-min Rain = 0
KSP2 191120Z 00000KT 00/M03 A2997 RMK A01 T00021030  RH  079%=      5-min Rain = 0
KSP2 191121Z 00000KT 00/M03 A2997 RMK A01 T00021031  RH  079%=      5-min Rain = 0
KSP2 191122Z 00000KT 00/M03 A2997 RMK A01 T00011031  RH  079%=      5-min Rain = 0
KSP2 191123Z 00000KT 00/03 A2997 RMK A01 T00-00-32  RH  079%=      5-min Rain = 0
KSP2 191124Z 00000KT 00/03 A2997 RMK A01 T00-00-32  RH  079%=      5-min Rain = 0
KSP2 191125Z 00000KT M00/M03 A2997 RMK A01 T10011032  RH  080%=      5-min Rain = 0
KSP2 191126Z 21000KT M00/M03 A2997 RMK A01 T10011031  RH  080%=      5-min Rain = 0
KSP2 191127Z 24001KT 00/03 A2997 RMK A01 T00-00-31  RH  080%=      5-min Rain = 0
KSP2 191128Z 27003KT M00/M03 A2997 RMK A01 T10011031  RH  080%=      5-min Rain = 0
KSP2 191129Z 27004KT 00/03 A2997 RMK A01 T00000-27  RH  082%=      5-min Rain = 0
KSP2 191130Z 27005KT 00/M03 A2997 RMK A01 T00021025  RH  082%=      5-min Rain = 0
KSP2 191131Z 27004KT 00/M02 A2997 RMK A01 T00031024  RH  082%=      5-min Rain = 0
KSP2 191132Z 26003KT 01/M02 A2997 RMK A01 T00051024  RH  081%=      5-min Rain = 0
KSP2 191133Z 25002KT 01/M03 A2997 RMK A01 T00071025  RH  079%=      5-min Rain = 0
KSP2 191134Z 26001KT 01/M03 A2997 RMK A01 T00081026  RH  078%=      5-min Rain = 0
KSP2 191135Z 24001KT 01/M03 A2997 RMK A01 T00081025  RH  078%=      5-min Rain = 0
KSP2 191136Z 24001KT 01/M03 A2996 RMK A01 T00081025  RH  079%=      5-min Rain = 0
KSP2 191137Z 24001KT 01/M03 A2996 RMK A01 T00081026  RH  078%=      5-min Rain = 0
KSP2 191138Z 24001KT 01/M03 A2996 RMK A01 T00081026  RH  078%=      5-min Rain = 0
KSP2 191139Z 24001KT 01/M03 A2996 RMK A01 T00081027  RH  078%=      5-min Rain = 0
KSP2 191140Z 24001KT 01/M03 A2996 RMK A01 T00081026  RH  078%=      5-min Rain = 0
KSP2 191141Z 24001KT 01/M03 A2996 RMK A01 T00081027  RH  078%=      5-min Rain = 0
KSP2 191142Z 24000KT 01/M03 A2996 RMK A01 T00071028  RH  078%=      5-min Rain = 0
KSP2 191143Z 24000KT 01/M03 A2996 RMK A01 T00061029  RH  078%=      5-min Rain = 0
KSP2 191144Z 00000KT 01/M03 A2996 RMK A01 T00051029  RH  078%=      5-min Rain = 0
KSP2 191145Z 00000KT 00/M03 A2996 RMK A01 T00041029  RH  078%=      5-min Rain = 0
KSP2 191146Z 00000KT 00/M03 A2996 RMK A01 T00031029  RH  079%=      5-min Rain = 0
KSP2 191147Z 00000KT 00/M03 A2996 RMK A01 T00031029  RH  079%=      5-min Rain = 0
KSP2 191148Z 00000KT 00/M03 A2996 RMK A01 T00021029  RH  079%=      5-min Rain = 0
KSP2 191149Z 00000KT 00/M03 A2996 RMK A01 T00021029  RH  080%=      5-min Rain = 0
KSP2 191150Z 00000KT 00/M03 A2996 RMK A01 T00021029  RH  080%=      5-min Rain = 0
KSP2 191151Z 00000KT 00/M03 A2996 RMK A01 T00011029  RH  080%=      5-min Rain = 0
KSP2 191152Z 00000KT 00/M03 A2995 RMK A01 T00011029  RH  081%=      5-min Rain = 0
KSP2 191153Z 00000KT 00/M03 A2995 RMK A01 T00011028  RH  081%=      5-min Rain = 0
KSP2 191154Z 00000KT 00/03 A2995 RMK A01 T00000-28  RH  081%=      5-min Rain = 0
KSP2 191155Z 00000KT 00/M03 A2995 RMK A01 T00011028  RH  081%=      5-min Rain = 0
KSP2 191156Z 00000KT 00/M03 A2995 RMK A01 T00011028  RH  081%=      5-min Rain = 0
KSP2 191157Z 00000KT 00/M03 A2995 RMK A01 T00011028  RH  081%=      5-min Rain = 0
KSP2 191158Z 00000KT 00/M03 A2995 RMK A01 T00011028  RH  081%=      5-min Rain = 0
KSP2 191159Z 00000KT 00/M03 A2995 RMK A01 T00011029  RH  081%=      5-min Rain = 0
KSP2 191200Z 00000KT 00/03 A2995 RMK A01 T00000-29  RH  080%=      5-min Rain = 0
KSP2 191201Z 00000KT 00/03 A2995 RMK A01 T00-00-29  RH  081%=      5-min Rain = 0
KSP2 191202Z 00000KT M00/M03 A2995 RMK A01 T10011030  RH  081%=      5-min Rain = 0
KSP2 191203Z 00000KT M00/M03 A2995 RMK A01 T10011030  RH  081%=      5-min Rain = 0
KSP2 191204Z 00000KT M00/M03 A2995 RMK A01 T10021029  RH  082%=      5-min Rain = 0
KSP2 191205Z 24000KT M00/M03 A2995 RMK A01 T10011029  RH  082%=      5-min Rain = 0
KSP2 191206Z 24001KT M00/M03 A2995 RMK A01 T10011029  RH  081%=      5-min Rain = 0
KSP2 191207Z 24002KT M00/M03 A2995 RMK A01 T10011029  RH  082%=      5-min Rain = 0
KSP2 191208Z 25002KT M00/M03 A2995 RMK A01 T10011027  RH  082%=      5-min Rain = 0
KSP2 191209Z 25002KT 00/03 A2995 RMK A01 T00000-28  RH  082%=      5-min Rain = 0
KSP2 191210Z 27002KT 00/03 A2995 RMK A01 T00000-28  RH  081%=      5-min Rain = 0
KSP2 191211Z 28002KT 00/03 A2995 RMK A01 T00-00-27  RH  082%=      5-min Rain = 0
KSP2 191212Z 28002KT 00/03 A2995 RMK A01 T00000-27  RH  082%=      5-min Rain = 0
KSP2 191213Z 27002KT 00/M03 A2995 RMK A01 T00011027  RH  082%=      5-min Rain = 0
KSP2 191214Z 26002KT 00/M03 A2995 RMK A01 T00021025  RH  082%=      5-min Rain = 0
KSP2 191215Z 26002KT 00/M03 A2995 RMK A01 T00031025  RH  082%=      5-min Rain = 0
KSP2 191216Z 27003KT 00/M03 A2995 RMK A01 T00041025  RH  081%=      5-min Rain = 0
KSP2 191217Z 27002KT 01/M02 A2995 RMK A01 T00061024  RH  080%=      5-min Rain = 0
KSP2 191218Z 27003KT 01/M03 A2995 RMK A01 T00081025  RH  079%=      5-min Rain = 0
KSP2 191219Z 27002KT 01/M03 A2995 RMK A01 T00091025  RH  078%=      5-min Rain = 0
KSP2 191220Z 26002KT 01/M03 A2995 RMK A01 T00101025  RH  078%=      5-min Rain = 0
KSP2 191221Z 26002KT 01/M03 A2995 RMK A01 T00101025  RH  077%=      5-min Rain = 0
KSP2 191222Z 26003KT 01/M02 A2995 RMK A01 T00101024  RH  078%=      5-min Rain = 0
KSP2 191223Z 26003KT 01/M02 A2995 RMK A01 T00111023  RH  078%=      5-min Rain = 0
KSP2 191224Z 25003KT 01/M02 A2995 RMK A01 T00111021  RH  079%=      5-min Rain = 0
KSP2 191225Z 26003KT 01/M02 A2995 RMK A01 T00101020  RH  081%=      5-min Rain = 0
KSP2 191226Z 26004KT 01/M02 A2996 RMK A01 T00101018  RH  081%=      5-min Rain = 0
KSP2 191227Z 27004KT 01/M02 A2996 RMK A01 T00091019  RH  081%=      5-min Rain = 0
KSP2 191228Z 27005KT 01/M02 A2996 RMK A01 T00111019  RH  081%=      5-min Rain = 0
KSP2 191229Z 26006KT 01/M02 A2996 RMK A01 T00111020  RH  080%=      5-min Rain = 0
KSP2 191230Z 26006KT 01/M02 A2996 RMK A01 T00121019  RH  080%=      5-min Rain = 0
KSP2 191231Z 27006KT 01/M02 A2996 RMK A01 T00121018  RH  081%=      5-min Rain = 0
KSP2 191232Z 26005KT 01/M02 A2996 RMK A01 T00121017  RH  081%=      5-min Rain = 0
KSP2 191233Z 26004KT 01/M02 A2996 RMK A01 T00121017  RH  080%=      5-min Rain = 0
KSP2 191234Z 26003KT 01/M02 A2996 RMK A01 T00131018  RH  080%=      5-min Rain = 0
KSP2 191235Z 26003KT 01/M02 A2996 RMK A01 T00141019  RH  079%=      5-min Rain = 0
KSP2 191236Z 27004KT 01/M02 A2996 RMK A01 T00141019  RH  078%=      5-min Rain = 0
KSP2 191237Z 26004KT 02/M02 A2996 RMK A01 T00151020  RH  077%=      5-min Rain = 0
KSP2 191238Z 27005KT 02/M02 A2996 RMK A01 T00161021  RH  077%=      5-min Rain = 0
KSP2 191239Z 27005KT 02/M02 A2996 RMK A01 T00171021  RH  076%=      5-min Rain = 0
KSP2 191240Z 26005KT 02/M02 A2996 RMK A01 T00181021  RH  075%=      5-min Rain = 0
KSP2 191241Z 27005KT 02/M02 A2996 RMK A01 T00181022  RH  075%=      5-min Rain = 0
KSP2 191242Z 26005KT 02/M02 A2996 RMK A01 T00191022  RH  074%=      5-min Rain = 0
KSP2 191243Z 26004KT 02/M02 A2996 RMK A01 T00191022  RH  074%=      5-min Rain = 0
KSP2 191244Z 27004KT 02/M02 A2996 RMK A01 T00181023  RH  074%=      5-min Rain = 0
KSP2 191245Z 26003KT 02/M02 A2996 RMK A01 T00181023  RH  074%=      5-min Rain = 0
KSP2 191246Z 25003KT 02/M02 A2996 RMK A01 T00181023  RH  074%=      5-min Rain = 0
KSP2 191247Z 25002KT 02/M02 A2996 RMK A01 T00181023  RH  074%=      5-min Rain = 0
KSP2 191248Z 26004KT 02/M02 A2997 RMK A01 T00171023  RH  075%=      5-min Rain = 0
KSP2 191249Z 25003KT 02/M02 A2997 RMK A01 T00161024  RH  075%=      5-min Rain = 0
KSP2 191250Z 24003KT 02/M02 A2997 RMK A01 T00161024  RH  075%=      5-min Rain = 0
KSP2 191251Z 24004KT 01/M02 A2997 RMK A01 T00141024  RH  075%=      5-min Rain = 0
KSP2 191252Z 24004KT 01/M02 A2997 RMK A01 T00141024  RH  076%=      5-min Rain = 0
KSP2 191253Z 24004KT 01/M02 A2997 RMK A01 T00141023  RH  076%=      5-min Rain = 0
KSP2 191254Z 24004KT 01/M02 A2997 RMK A01 T00131024  RH  077%=      5-min Rain = 0
KSP2 191255Z 24004KT 01/M02 A2997 RMK A01 T00131024  RH  076%=      5-min Rain = 0
KSP2 191256Z 24004KT 01/M03 A2997 RMK A01 T00131025  RH  076%=      5-min Rain = 0
KSP2 191257Z 24004KT 01/M03 A2997 RMK A01 T00131025  RH  076%=      5-min Rain = 0
KSP2 191258Z 24004KT 01/M03 A2997 RMK A01 T00121026  RH  076%=      5-min Rain = 0
KSP2 191259Z 24004KT 01/M03 A2997 RMK A01 T00121026  RH  076%=      5-min Rain = 0
KSP2 191300Z 24004KT 01/M03 A2997 RMK A01 T00121026  RH  076%=      5-min Rain = 0
KSP2 191301Z 24005KT 01/M03 A2997 RMK A01 T00131025  RH  076%=      5-min Rain = 0
KSP2 191302Z 24004KT 01/M03 A2997 RMK A01 T00131025  RH  076%=      5-min Rain = 0
KSP2 191303Z 25002KT 01/M03 A2997 RMK A01 T00131025  RH  076%=      5-min Rain = 0
KSP2 191304Z 25003KT 01/M03 A2997 RMK A01 T00131025  RH  076%=      5-min Rain = 0
KSP2 191305Z 25001KT 01/M03 A2997 RMK A01 T00131025  RH  076%=      5-min Rain = 0
KSP2 191306Z 25002KT 01/M03 A2997 RMK A01 T00121026  RH  076%=      5-min Rain = 0
KSP2 191307Z 25001KT 01/M03 A2997 RMK A01 T00131025  RH  076%=      5-min Rain = 0
KSP2 191308Z 25002KT 01/M03 A2997 RMK A01 T00131025  RH  076%=      5-min Rain = 0
KSP2 191309Z 25002KT 01/M03 A2997 RMK A01 T00131026  RH  076%=      5-min Rain = 0
KSP2 191310Z 26002KT 01/M03 A2997 RMK A01 T00131026  RH  076%=      5-min Rain = 0
KSP2 191311Z 26003KT 01/M03 A2997 RMK A01 T00131026  RH  076%=      5-min Rain = 0
KSP2 191312Z 26002KT 01/M03 A2997 RMK A01 T00121026  RH  076%=      5-min Rain = 0
KSP2 191313Z 26003KT 01/M03 A2997 RMK A01 T00121026  RH  076%=      5-min Rain = 0
KSP2 191314Z 25003KT 01/M03 A2997 RMK A01 T00121026  RH  076%=      5-min Rain = 0
KSP2 191315Z 24002KT 01/M03 A2997 RMK A01 T00121026  RH  076%=      5-min Rain = 0
KSP2 191316Z 24002KT 01/M03 A2997 RMK A01 T00111026  RH  076%=      5-min Rain = 0
KSP2 191317Z 24002KT 01/M03 A2997 RMK A01 T00111026  RH  076%=      5-min Rain = 0
KSP2 191318Z 24002KT 01/M03 A2997 RMK A01 T00111026  RH  076%=      5-min Rain = 0
KSP2 191319Z 24002KT 01/M03 A2997 RMK A01 T00101027  RH  076%=      5-min Rain = 0
KSP2 191320Z 23002KT 01/M03 A2997 RMK A01 T00101027  RH  077%=      5-min Rain = 0
KSP2 191321Z 23002KT 01/M03 A2997 RMK A01 T00091027  RH  077%=      5-min Rain = 0
KSP2 191322Z 24002KT 01/M03 A2997 RMK A01 T00081027  RH  077%=      5-min Rain = 0
KSP2 191323Z 24002KT 01/M03 A2997 RMK A01 T00071027  RH  077%=      5-min Rain = 0
KSP2 191324Z 25002KT 01/M03 A2997 RMK A01 T00071027  RH  078%=      5-min Rain = 0
KSP2 191325Z 25002KT 01/M03 A2997 RMK A01 T00071028  RH  078%=      5-min Rain = 0
KSP2 191326Z 25003KT 01/M03 A2997 RMK A01 T00071027  RH  078%=      5-min Rain = 0
KSP2 191327Z 25002KT 01/M03 A2997 RMK A01 T00071027  RH  078%=      5-min Rain = 0
KSP2 191328Z 25002KT 01/M03 A2997 RMK A01 T00081027  RH  078%=      5-min Rain = 0
KSP2 191329Z 25003KT 01/M03 A2997 RMK A01 T00091026  RH  078%=      5-min Rain = 0
KSP2 191330Z 25003KT 01/M03 A2997 RMK A01 T00091026  RH  077%=      5-min Rain = 0
KSP2 191331Z 25003KT 01/M03 A2997 RMK A01 T00091026  RH  077%=      5-min Rain = 0
KSP2 191332Z 25003KT 01/M03 A2997 RMK A01 T00091027  RH  077%=      5-min Rain = 0
KSP2 191333Z 26002KT 01/M03 A2997 RMK A01 T00101027  RH  077%=      5-min Rain = 0
KSP2 191334Z 25003KT 01/M03 A2997 RMK A01 T00101027  RH  076%=      5-min Rain = 0
KSP2 191335Z 25002KT 01/M03 A2997 RMK A01 T00101027  RH  076%=      5-min Rain = 0
KSP2 191336Z 26003KT 01/M03 A2997 RMK A01 T00101026  RH  077%=      5-min Rain = 0
KSP2 191337Z 26003KT 01/M03 A2997 RMK A01 T00101026  RH  077%=      5-min Rain = 0
KSP2 191338Z 27002KT 01/M03 A2997 RMK A01 T00101026  RH  077%=      5-min Rain = 0
KSP2 191339Z 25002KT 01/M03 A2997 RMK A01 T00111025  RH  077%=      5-min Rain = 0
KSP2 191340Z 26002KT 01/M03 A2997 RMK A01 T00131025  RH  076%=      5-min Rain = 0
KSP2 191341Z 25002KT 01/M03 A2997 RMK A01 T00141025  RH  075%=      5-min Rain = 0
KSP2 191342Z 26002KT 02/M03 A2997 RMK A01 T00151025  RH  075%=      5-min Rain = 0
KSP2 191343Z 26002KT 02/M03 A2997 RMK A01 T00161025  RH  074%=      5-min Rain = 0
KSP2 191344Z 27001KT 02/M03 A2997 RMK A01 T00171025  RH  074%=      5-min Rain = 0
KSP2 191345Z 27001KT 02/M03 A2997 RMK A01 T00181025  RH  073%=      5-min Rain = 0
KSP2 191346Z 27002KT 02/M03 A2997 RMK A01 T00181025  RH  073%=      5-min Rain = 0
KSP2 191347Z 26002KT 02/M03 A2997 RMK A01 T00191025  RH  073%=      5-min Rain = 0
KSP2 191348Z 27002KT 02/M03 A2997 RMK A01 T00191026  RH  072%=      5-min Rain = 0
KSP2 191349Z 27002KT 02/M03 A2997 RMK A01 T00191026  RH  072%=      5-min Rain = 0
KSP2 191350Z 26002KT 02/M03 A2997 RMK A01 T00191026  RH  072%=      5-min Rain = 0
KSP2 191351Z 26002KT 02/M03 A2997 RMK A01 T00191026  RH  072%=      5-min Rain = 0
KSP2 191352Z 25003KT 02/M03 A2997 RMK A01 T00201025  RH  072%=      5-min Rain = 0
KSP2 191353Z 26003KT 02/M03 A2997 RMK A01 T00201025  RH  072%=      5-min Rain = 0
KSP2 191354Z 26002KT 02/M02 A2997 RMK A01 T00201024  RH  072%=      5-min Rain = 0
KSP2 191355Z 24001KT 02/M02 A2997 RMK A01 T00211024  RH  072%=      5-min Rain = 0
KSP2 191356Z 23002KT 02/M02 A2997 RMK A01 T00231023  RH  072%=      5-min Rain = 0
KSP2 191357Z 24002KT 02/M02 A2997 RMK A01 T00241022  RH  071%=      5-min Rain = 0
KSP2 191358Z 24002KT 03/M02 A2997 RMK A01 T00251022  RH  071%=      5-min Rain = 0
KSP2 191359Z 24002KT 03/M02 A2997 RMK A01 T00261022  RH  071%=      5-min Rain = 0
KSP2 191400Z 25003KT 03/M02 A2997 RMK A01 T00271022  RH  070%=      5-min Rain = 0
KSP2 191401Z 25002KT 03/M02 A2997 RMK A01 T00271022  RH  070%=      5-min Rain = 0
KSP2 191402Z 25002KT 03/M02 A2997 RMK A01 T00281021  RH  070%=      5-min Rain = 0
KSP2 191403Z 27002KT 03/M02 A2997 RMK A01 T00291020  RH  070%=      5-min Rain = 0
KSP2 191404Z 28001KT 03/M02 A2997 RMK A01 T00301019  RH  070%=      5-min Rain = 0
KSP2 191405Z 27000KT 03/M02 A2997 RMK A01 T00321016  RH  071%=      5-min Rain = 0
KSP2 191406Z 00000KT 03/M02 A2997 RMK A01 T00331016  RH  070%=      5-min Rain = 0
KSP2 191407Z 29001KT 04/M01 A2997 RMK A01 T00361014  RH  070%=      5-min Rain = 0
KSP2 191408Z 29000KT 04/M02 A2997 RMK A01 T00381015  RH  068%=      5-min Rain = 0
KSP2 191409Z 27001KT 04/M02 A2997 RMK A01 T00401015  RH  068%=      5-min Rain = 0
KSP2 191410Z 25002KT 04/M02 A2997 RMK A01 T00411015  RH  067%=      5-min Rain = 0
KSP2 191411Z 26001KT 04/M02 A2997 RMK A01 T00411015  RH  067%=      5-min Rain = 0
KSP2 191412Z 27001KT 04/M02 A2997 RMK A01 T00421015  RH  067%=      5-min Rain = 0
KSP2 191413Z 27001KT 04/M01 A2997 RMK A01 T00431013  RH  067%=      5-min Rain = 0
KSP2 191414Z 28002KT 04/M01 A2997 RMK A01 T00441013  RH  067%=      5-min Rain = 0
KSP2 191415Z 28002KT 05/M01 A2997 RMK A01 T00451012  RH  066%=      5-min Rain = 0
KSP2 191416Z 26002KT 05/M01 A2997 RMK A01 T00461010  RH  067%=      5-min Rain = 0
KSP2 191417Z 26003KT 05/M01 A2997 RMK A01 T00471010  RH  067%=      5-min Rain = 0
KSP2 191418Z 26002KT 05/M01 A2997 RMK A01 T00491010  RH  066%=      5-min Rain = 0
KSP2 191419Z 26002KT 05/M01 A2997 RMK A01 T00501010  RH  066%=      5-min Rain = 0
KSP2 191420Z 25001KT 05/M01 A2997 RMK A01 T00511010  RH  065%=      5-min Rain = 0
KSP2 191421Z 25002KT 05/M01 A2997 RMK A01 T00511009  RH  065%=      5-min Rain = 0
KSP2 191422Z 26002KT 05/M01 A2997 RMK A01 T00531008  RH  065%=      5-min Rain = 0
KSP2 191423Z 26002KT 05/M01 A2997 RMK A01 T00541009  RH  064%=      5-min Rain = 0
KSP2 191424Z 27002KT 06/M01 A2997 RMK A01 T00551007  RH  065%=      5-min Rain = 0
KSP2 191425Z 27001KT 06/M01 A2997 RMK A01 T00561007  RH  064%=      5-min Rain = 0
KSP2 191426Z 25001KT 06/M01 A2997 RMK A01 T00571005  RH  064%=      5-min Rain = 0
KSP2 191427Z 24002KT 06/M00 A2997 RMK A01 T00591003  RH  064%=      5-min Rain = 0
KSP2 191428Z 25002KT 06/M01 A2997 RMK A01 T00601005  RH  063%=      5-min Rain = 0
KSP2 191429Z 25003KT 06/M00 A2997 RMK A01 T00611004  RH  063%=      5-min Rain = 0
KSP2 191430Z 25002KT 06/M00 A2997 RMK A01 T00631004  RH  062%=      5-min Rain = 0
KSP2 191431Z 24001KT 06/M00 A2997 RMK A01 T00641003  RH  062%=      5-min Rain = 0
KSP2 191432Z 23001KT 07/M00 A2997 RMK A01 T00651001  RH  063%=      5-min Rain = 0
KSP2 191433Z 23001KT 07/00 A2997 RMK A01 T00670000  RH  062%=      5-min Rain = 0
KSP2 191434Z 24001KT 07/00 A2997 RMK A01 T006800-0  RH  062%=      5-min Rain = 0
KSP2 191435Z 24001KT 07/00 A2997 RMK A01 T007000-0  RH  061%=      5-min Rain = 0
KSP2 191436Z 24001KT 07/00 A2997 RMK A01 T00710000  RH  061%=      5-min Rain = 0
KSP2 191437Z 24002KT 07/00 A2997 RMK A01 T007300-0  RH  060%=      5-min Rain = 0
KSP2 191438Z 24002KT 07/00 A2997 RMK A01 T00740000  RH  059%=      5-min Rain = 0
KSP2 191439Z 24001KT 08/00 A2997 RMK A01 T00760000  RH  059%=      5-min Rain = 0
KSP2 191440Z 23002KT 08/00 A2997 RMK A01 T007700-0  RH  058%=      5-min Rain = 0
KSP2 191441Z 24002KT 08/00 A2997 RMK A01 T007900-0  RH  057%=      5-min Rain = 0
KSP2 191442Z 25002KT 08/00 A2997 RMK A01 T008000-0  RH  057%=      5-min Rain = 0
KSP2 191443Z 25002KT 08/00 A2997 RMK A01 T00820002  RH  057%=      5-min Rain = 0
KSP2 191444Z 25001KT 08/00 A2997 RMK A01 T00840001  RH  056%=      5-min Rain = 0
KSP2 191445Z 27001KT 09/00 A2997 RMK A01 T00850003  RH  056%=      5-min Rain = 0
KSP2 191446Z 25001KT 09/00 A2997 RMK A01 T00870002  RH  055%=      5-min Rain = 0
KSP2 191447Z 25002KT 09/00 A2997 RMK A01 T00880003  RH  055%=      5-min Rain = 0
KSP2 191448Z 25002KT 09/00 A2997 RMK A01 T00890002  RH  054%=      5-min Rain = 0
KSP2 191449Z 25001KT 09/00 A2997 RMK A01 T00910004  RH  055%=      5-min Rain = 0
KSP2 191450Z 25001KT 09/00 A2997 RMK A01 T00930004  RH  054%=      5-min Rain = 0
KSP2 191451Z 26001KT 09/00 A2997 RMK A01 T00940003  RH  053%=      5-min Rain = 0
KSP2 191452Z 25001KT 10/00 A2997 RMK A01 T00960003  RH  053%=      5-min Rain = 0
KSP2 191453Z 25000KT 10/01 A2997 RMK A01 T00970005  RH  053%=      5-min Rain = 0
KSP2 191454Z 00000KT 10/01 A2997 RMK A01 T00990005  RH  052%=      5-min Rain = 0
KSP2 191455Z 25000KT 10/01 A2997 RMK A01 T01000005  RH  052%=      5-min Rain = 0
KSP2 191456Z 25000KT 10/01 A2997 RMK A01 T01030008  RH  052%=      5-min Rain = 0
KSP2 191457Z 00000KT 10/01 A2997 RMK A01 T01040005  RH  050%=      5-min Rain = 0
KSP2 191458Z 25000KT 11/01 A2997 RMK A01 T01060006  RH  050%=      5-min Rain = 0
KSP2 191459Z 25001KT 11/01 A2997 RMK A01 T01080007  RH  050%=      5-min Rain = 0
KSP2 191500Z 23000KT 11/01 A2997 RMK A01 T01090009  RH  050%=      5-min Rain = 0
KSP2 191501Z 23000KT 11/01 A2997 RMK A01 T01110008  RH  049%=      5-min Rain = 0
KSP2 191502Z 22001KT 11/01 A2997 RMK A01 T01120008  RH  049%=      5-min Rain = 0
KSP2 191503Z 23001KT 11/01 A2997 RMK A01 T01130007  RH  048%=      5-min Rain = 0
KSP2 191504Z 23002KT 12/01 A2996 RMK A01 T01150008  RH  048%=      5-min Rain = 0
KSP2 191505Z 23001KT 12/01 A2996 RMK A01 T01150007  RH  047%=      5-min Rain = 0
KSP2 191506Z 23001KT 12/01 A2996 RMK A01 T01160008  RH  047%=      5-min Rain = 0
KSP2 191507Z 24001KT 12/01 A2996 RMK A01 T01170009  RH  048%=      5-min Rain = 0
KSP2 191508Z 22001KT 12/01 A2996 RMK A01 T01190010  RH  047%=      5-min Rain = 0
KSP2 191509Z 22001KT 12/01 A2997 RMK A01 T01200010  RH  047%=      5-min Rain = 0
KSP2 191510Z 16001KT 12/01 A2997 RMK A01 T01210013  RH  047%=      5-min Rain = 0
KSP2 191511Z 16002KT 13/02 A2996 RMK A01 T01250016  RH  047%=      5-min Rain = 0
KSP2 191512Z 18001KT 13/02 A2997 RMK A01 T01280017  RH  047%=      5-min Rain = 0
KSP2 191513Z 18002KT 13/02 A2997 RMK A01 T01310019  RH  046%=      5-min Rain = 0
KSP2 191514Z 19002KT 14/02 A2997 RMK A01 T01350022  RH  046%=      5-min Rain = 0
KSP2 191515Z 18003KT 14/02 A2997 RMK A01 T01380020  RH  045%=      5-min Rain = 0
KSP2 191516Z 18003KT 14/02 A2996 RMK A01 T01390019  RH  044%=      5-min Rain = 0
KSP2 191517Z 19003KT 14/02 A2997 RMK A01 T01390019  RH  044%=      5-min Rain = 0
KSP2 191518Z 18003KT 14/02 A2997 RMK A01 T01400021  RH  044%=      5-min Rain = 0
KSP2 191519Z 19003KT 14/02 A2997 RMK A01 T01420022  RH  044%=      5-min Rain = 0
KSP2 191520Z 19004KT 14/02 A2997 RMK A01 T01440020  RH  043%=      5-min Rain = 0
KSP2 191521Z 19004KT 15/02 A2997 RMK A01 T01470021  RH  043%=      5-min Rain = 0
KSP2 191522Z 19005KT 15/02 A2997 RMK A01 T01480020  RH  042%=      5-min Rain = 0
KSP2 191523Z 19003KT 15/02 A2996 RMK A01 T01480020  RH  042%=      5-min Rain = 0
KSP2 191524Z 19003KT 15/02 A2996 RMK A01 T01490022  RH  042%=      5-min Rain = 0
KSP2 191525Z 17003KT 15/02 A2996 RMK A01 T01510023  RH  042%=      5-min Rain = 0
KSP2 191526Z 17005KT 15/02 A2996 RMK A01 T01540022  RH  041%=      5-min Rain = 0
KSP2 191527Z 17004KT 16/02 A2996 RMK A01 T01550022  RH  041%=      5-min Rain = 0
KSP2 191528Z 16003KT 16/02 A2996 RMK A01 T01550022  RH  041%=      5-min Rain = 0
KSP2 191529Z 17005KT 16/02 A2996 RMK A01 T01560023  RH  041%=      5-min Rain = 0
KSP2 191530Z 16004KT 16/02 A2996 RMK A01 T01570023  RH  040%=      5-min Rain = 0
KSP2 191531Z 16005KT 16/02 A2996 RMK A01 T01590023  RH  040%=      5-min Rain = 0
KSP2 191532Z 17004KT 16/02 A2996 RMK A01 T01620022  RH  039%=      5-min Rain = 0
KSP2 191533Z 15006KT 17/02 A2996 RMK A01 T01650023  RH  039%=      5-min Rain = 0
KSP2 191534Z 17006KT 17/02 A2996 RMK A01 T01680022  RH  037%=      5-min Rain = 0
KSP2 191535Z 16005KT 17/02 A2996 RMK A01 T01690021  RH  037%=      5-min Rain = 0
KSP2 191536Z 17006KT 17/02 A2996 RMK A01 T01700021  RH  037%=      5-min Rain = 0
KSP2 191537Z 16007KT 17/02 A2996 RMK A01 T01710018  RH  036%=      5-min Rain = 0
KSP2 191538Z 17006KT 17/02 A2996 RMK A01 T01720018  RH  036%=      5-min Rain = 0
KSP2 191539Z 17005KT 17/02 A2996 RMK A01 T01730020  RH  036%=      5-min Rain = 0
KSP2 191540Z 16007KT 18/02 A2996 RMK A01 T01750020  RH  035%=      5-min Rain = 0
KSP2 191541Z 16007KT 18/02 A2996 RMK A01 T01770018  RH  034%=      5-min Rain = 0
KSP2 191542Z 16007KT 18/02 A2996 RMK A01 T01800019  RH  034%=      5-min Rain = 0
KSP2 191543Z 16007KT 18/02 A2996 RMK A01 T01820019  RH  033%=      5-min Rain = 0
KSP2 191544Z 16006KT 18/02 A2996 RMK A01 T01840018  RH  033%=      5-min Rain = 0
KSP2 191545Z 16006KT 19/02 A2996 RMK A01 T01860019  RH  033%=      5-min Rain = 0
KSP2 191546Z 16008KT 19/02 A2996 RMK A01 T01860018  RH  032%=      5-min Rain = 0
KSP2 191547Z 16006KT 19/02 A2996 RMK A01 T01870016  RH  032%=      5-min Rain = 0
KSP2 191548Z 16008KT 19/02 A2996 RMK A01 T01870019  RH  032%=      5-min Rain = 0
KSP2 191549Z 16007KT 19/02 A2996 RMK A01 T01880017  RH  032%=      5-min Rain = 0
KSP2 191550Z 18007KT 19/02 A2996 RMK A01 T01880018  RH  032%=      5-min Rain = 0
KSP2 191551Z 17009KT 19/02 A2996 RMK A01 T01890016  RH  032%=      5-min Rain = 0
KSP2 191552Z 17007KT 19/02 A2996 RMK A01 T01880016  RH  031%=      5-min Rain = 0
KSP2 191553Z 17009KT 19/02 A2996 RMK A01 T01890017  RH  032%=      5-min Rain = 0
KSP2 191554Z 18006KT 19/02 A2996 RMK A01 T01900018  RH  032%=      5-min Rain = 0
KSP2 191555Z 18007KT 19/02 A2996 RMK A01 T01910018  RH  031%=      5-min Rain = 0
KSP2 191556Z 19008KT 19/02 A2997 RMK A01 T01920019  RH  031%=      5-min Rain = 0
KSP2 191557Z 19009KT 19/02 A2997 RMK A01 T01940017  RH  031%=      5-min Rain = 0
KSP2 191558Z 18009KT 19/01 A2997 RMK A01 T01930014  RH  030%=      5-min Rain = 0
KSP2 191559Z 17007KT 19/02 A2997 RMK A01 T01920015  RH  031%=      5-min Rain = 0
KSP2 191600Z 17009KT 19/01 A2996 RMK A01 T01920014  RH  030%=      5-min Rain = 0
KSP2 191601Z 19007KT 19/02 A2996 RMK A01 T01910016  RH  031%=      5-min Rain = 0
KSP2 191602Z 18007KT 19/02 A2996 RMK A01 T01910017  RH  031%=      5-min Rain = 0
KSP2 191603Z 18009KT 19/02 A2996 RMK A01 T01920016  RH  031%=      5-min Rain = 0
KSP2 191604Z 17008KT 19/01 A2996 RMK A01 T01940011  RH  030%=      5-min Rain = 0
KSP2 191605Z 16008KT 19/01 A2996 RMK A01 T01940013  RH  030%=      5-min Rain = 0
KSP2 191606Z 16008KT 20/01 A2996 RMK A01 T01960014  RH  030%=      5-min Rain = 0
KSP2 191607Z 16007KT 20/01 A2996 RMK A01 T01970014  RH  029%=      5-min Rain = 0
KSP2 191608Z 16008KT 20/01 A2996 RMK A01 T01990014  RH  029%=      5-min Rain = 0
KSP2 191609Z 16007KT 20/01 A2996 RMK A01 T02000014  RH  029%=      5-min Rain = 0
KSP2 191610Z 17007KT 20/01 A2996 RMK A01 T02010014  RH  029%=      5-min Rain = 0
KSP2 191611Z 18007KT 20/01 A2996 RMK A01 T02010014  RH  029%=      5-min Rain = 0
KSP2 191612Z 18010KT 20/01 A2996 RMK A01 T02010013  RH  029%=      5-min Rain = 0
KSP2 191613Z 18008KT 20/01 A2996 RMK A01 T01980011  RH  029%=      5-min Rain = 0
KSP2 191614Z 17007KT 20/01 A2996 RMK A01 T01970013  RH  029%=      5-min Rain = 0
KSP2 191615Z 18007KT 20/01 A2996 RMK A01 T01980013  RH  029%=      5-min Rain = 0
KSP2 191616Z 17008KT 20/01 A2996 RMK A01 T01990012  RH  029%=      5-min Rain = 0
KSP2 191617Z 18007KT 20/01 A2996 RMK A01 T01990011  RH  028%=      5-min Rain = 0
KSP2 191618Z 17008KT 20/01 A2996 RMK A01 T01990012  RH  029%=      5-min Rain = 0
KSP2 191619Z 18008KT 20/01 A2996 RMK A01 T02000013  RH  029%=      5-min Rain = 0
KSP2 191620Z 17008KT 20/01 A2996 RMK A01 T02020013  RH  029%=      5-min Rain = 0
KSP2 191621Z 18006KT 20/01 A2996 RMK A01 T02010014  RH  029%=      5-min Rain = 0
KSP2 191622Z 18008KT 20/01 A2996 RMK A01 T02000014  RH  029%=      5-min Rain = 0
KSP2 191623Z 19008KT 20/01 A2996 RMK A01 T01980014  RH  029%=      5-min Rain = 0
KSP2 191624Z 18009KT 20/01 A2996 RMK A01 T01950012  RH  029%=      5-min Rain = 0
KSP2 191625Z 17009KT 20/01 A2996 RMK A01 T01950014  RH  030%=      5-min Rain = 0
KSP2 191626Z 18008KT 19/02 A2996 RMK A01 T01940015  RH  030%=      5-min Rain = 0
KSP2 191627Z 18011KT 20/01 A2996 RMK A01 T01960014  RH  030%=      5-min Rain = 0
KSP2 191628Z 17011KT 20/01 A2996 RMK A01 T01980011  RH  029%=      5-min Rain = 0
KSP2 191629Z 17010KT 20/01 A2996 RMK A01 T01980011  RH  029%=      5-min Rain = 0
KSP2 191630Z 17008KT 20/01 A2996 RMK A01 T01990012  RH  029%=      5-min Rain = 0
KSP2 191631Z 18009KT 20/01 A2996 RMK A01 T02000014  RH  029%=      5-min Rain = 0
KSP2 191632Z 17010KT 20/01 A2996 RMK A01 T02000012  RH  028%=      5-min Rain = 0
KSP2 191633Z 17010KT 20/01 A2996 RMK A01 T01990011  RH  028%=      5-min Rain = 0
KSP2 191634Z 17009KT 20/01 A2996 RMK A01 T01990011  RH  028%=      5-min Rain = 0
KSP2 191635Z 16011KT 20/01 A2996 RMK A01 T02010011  RH  028%=      5-min Rain = 0
KSP2 191636Z 16010KT 20/01 A2996 RMK A01 T02010011  RH  028%=      5-min Rain = 0
KSP2 191637Z 17012KT 20/01 A2996 RMK A01 T02010010  RH  028%=      5-min Rain = 0
KSP2 191638Z 16013KT 20/01 A2996 RMK A01 T02010008  RH  027%=      5-min Rain = 0
KSP2 191639Z 16011KT 20/01 A2996 RMK A01 T02000008  RH  028%=      5-min Rain = 0
KSP2 191640Z 15012KT 20/01 A2995 RMK A01 T01990009  RH  028%=      5-min Rain = 0
KSP2 191641Z 15011KT 20/01 A2995 RMK A01 T01990008  RH  028%=      5-min Rain = 0
KSP2 191642Z 15010KT 20/01 A2995 RMK A01 T02000009  RH  028%=      5-min Rain = 0
KSP2 191643Z 16009KT 20/01 A2995 RMK A01 T02010011  RH  028%=      5-min Rain = 0
KSP2 191644Z 15010KT 20/01 A2995 RMK A01 T02020012  RH  028%=      5-min Rain = 0
KSP2 191645Z 15011KT 20/01 A2995 RMK A01 T02020013  RH  028%=      5-min Rain = 0
KSP2 191646Z 15013KT 20/01 A2995 RMK A01 T02000012  RH  028%=      5-min Rain = 0
KSP2 191647Z 15011KT 20/01 A2995 RMK A01 T01990013  RH  029%=      5-min Rain = 0
KSP2 191648Z 14011KT 20/01 A2995 RMK A01 T01980014  RH  029%=      5-min Rain = 0
KSP2 191649Z 15010KT 20/02 A2994 RMK A01 T01970015  RH  030%=      5-min Rain = 0
KSP2 191650Z 15009KT 20/02 A2994 RMK A01 T01970015  RH  030%=      5-min Rain = 0
KSP2 191651Z 15010KT 20/02 A2994 RMK A01 T01980015  RH  030%=      5-min Rain = 0
KSP2 191652Z 15013KT 20/02 A2995 RMK A01 T01990016  RH  030%=      5-min Rain = 0
KSP2 191653Z 15012KT 20/02 A2995 RMK A01 T01990016  RH  029%=      5-min Rain = 0
KSP2 191654Z 15010KT 20/02 A2995 RMK A01 T01980016  RH  030%=      5-min Rain = 0
KSP2 191655Z 15011KT 20/02 A2995 RMK A01 T01980017  RH  030%=      5-min Rain = 0
KSP2 191656Z 15009KT 20/02 A2995 RMK A01 T01990018  RH  030%=      5-min Rain = 0
KSP2 191657Z 16010G15KT 20/02 A2995 RMK A01 T02000017  RH  030%=      5-min Rain = 0
KSP2 191658Z 16012KT 20/02 A2995 RMK A01 T02020017  RH  029%=      5-min Rain = 0
KSP2 191659Z 16012KT 21/01 A2994 RMK A01 T02050014  RH  028%=      5-min Rain = 0
KSP2 191700Z 15014KT 21/01 A2994 RMK A01 T02070013  RH  028%=      5-min Rain = 0
KSP2 191701Z 16014KT 21/01 A2994 RMK A01 T02090013  RH  027%=      5-min Rain = 0
KSP2 191702Z 17014KT 21/01 A2994 RMK A01 T02100012  RH  027%=      5-min Rain = 0
KSP2 191703Z 16012KT 21/01 A2994 RMK A01 T02110012  RH  027%=      5-min Rain = 0
KSP2 191704Z 16012KT 21/01 A2994 RMK A01 T02120014  RH  027%=      5-min Rain = 0
KSP2 191705Z 15013KT 21/01 A2994 RMK A01 T02140012  RH  026%=      5-min Rain = 0
KSP2 191706Z 16013KT 22/01 A2994 RMK A01 T02150011  RH  026%=      5-min Rain = 0
KSP2 191707Z 16013KT 22/01 A2994 RMK A01 T02160011  RH  026%=      5-min Rain = 0
KSP2 191708Z 16012KT 22/01 A2994 RMK A01 T02170010  RH  025%=      5-min Rain = 0
KSP2 191709Z 17015KT 22/01 A2994 RMK A01 T02190009  RH  025%=      5-min Rain = 0
KSP2 191710Z 16015KT 22/01 A2994 RMK A01 T02200006  RH  024%=      5-min Rain = 0
KSP2 191711Z 17015G20KT 22/01 A2994 RMK A01 T02200005  RH  024%=      5-min Rain = 0
KSP2 191712Z 17013KT 22/01 A2994 RMK A01 T02190006  RH  024%=      5-min Rain = 0
KSP2 191713Z 16015G20KT 22/01 A2994 RMK A01 T02200006  RH  024%=      5-min Rain = 0
KSP2 191714Z 16013KT 22/00 A2994 RMK A01 T02190003  RH  024%=      5-min Rain = 0
KSP2 191715Z 16013KT 22/00 A2994 RMK A01 T02170004  RH  024%=      5-min Rain = 0
KSP2 191716Z 16016KT 22/00 A2994 RMK A01 T02170004  RH  024%=      5-min Rain = 0
KSP2 191717Z 17012G17KT 22/01 A2994 RMK A01 T02160005  RH  025%=      5-min Rain = 0
KSP2 191718Z 17015KT 22/01 A2994 RMK A01 T02170005  RH  025%=      5-min Rain = 0
KSP2 191719Z 16012G18KT 22/01 A2994 RMK A01 T02170006  RH  025%=      5-min Rain = 0
KSP2 191720Z 16015KT 22/01 A2994 RMK A01 T02190008  RH  025%=      5-min Rain = 0
KSP2 191721Z 16014KT 22/01 A2994 RMK A01 T02200006  RH  024%=      5-min Rain = 0
KSP2 191722Z 17012KT 22/01 A2993 RMK A01 T02190007  RH  024%=      5-min Rain = 0
KSP2 191723Z 17011KT 22/01 A2993 RMK A01 T02210010  RH  025%=      5-min Rain = 0
KSP2 191724Z 17011G16KT 23/01 A2993 RMK A01 T02250012  RH  024%=      5-min Rain = 0
KSP2 191725Z 17012KT 23/01 A2993 RMK A01 T02280012  RH  024%=      5-min Rain = 0
KSP2 191726Z 18017KT 23/01 A2993 RMK A01 T02300008  RH  023%=      5-min Rain = 0
KSP2 191727Z 17015KT 23/00 A2993 RMK A01 T02270003  RH  023%=      5-min Rain = 0
KSP2 191728Z 17013KT 23/01 A2993 RMK A01 T02260006  RH  023%=      5-min Rain = 0
KSP2 191729Z 17015KT 23/01 A2993 RMK A01 T02280006  RH  023%=      5-min Rain = 0
KSP2 191730Z 17012G17KT 23/01 A2993 RMK A01 T02280006  RH  023%=      5-min Rain = 0
KSP2 191731Z 17017KT 23/01 A2993 RMK A01 T02270006  RH  023%=      5-min Rain = 0
KSP2 191732Z 17013G18KT 23/01 A2993 RMK A01 T02260005  RH  023%=      5-min Rain = 0
KSP2 191733Z 18013KT 23/01 A2993 RMK A01 T02260007  RH  023%=      5-min Rain = 0
KSP2 191734Z 18015G20KT 23/01 A2993 RMK A01 T02270008  RH  023%=      5-min Rain = 0
KSP2 191735Z 18015KT 23/01 A2993 RMK A01 T02280008  RH  023%=      5-min Rain = 0
KSP2 191736Z 18015KT 23/01 A2993 RMK A01 T02270009  RH  024%=      5-min Rain = 0
KSP2 191737Z 18016KT 23/01 A2993 RMK A01 T02270008  RH  024%=      5-min Rain = 0
KSP2 191738Z 18016KT 23/01 A2993 RMK A01 T02260007  RH  023%=      5-min Rain = 0
KSP2 191739Z 18016KT 23/01 A2993 RMK A01 T02250006  RH  023%=      5-min Rain = 0
KSP2 191740Z 18017KT 22/01 A2993 RMK A01 T02240007  RH  024%=      5-min Rain = 0
KSP2 191741Z 17017KT 22/01 A2993 RMK A01 T02240006  RH  024%=      5-min Rain = 0
KSP2 191742Z 18015KT 22/01 A2993 RMK A01 T02220006  RH  024%=      5-min Rain = 0
KSP2 191743Z 19012KT 22/01 A2993 RMK A01 T02210007  RH  024%=      5-min Rain = 0
KSP2 191744Z 18011G16KT 22/01 A2993 RMK A01 T02210009  RH  025%=      5-min Rain = 0
KSP2 191745Z 19012KT 22/01 A2993 RMK A01 T02210010  RH  025%=      5-min Rain = 0
KSP2 191746Z 19014KT 22/01 A2993 RMK A01 T02210009  RH  025%=      5-min Rain = 0
KSP2 191747Z 18012KT 22/01 A2993 RMK A01 T02210010  RH  025%=      5-min Rain = 0
KSP2 191748Z 18010KT 22/01 A2993 RMK A01 T02210010  RH  025%=      5-min Rain = 0
KSP2 191749Z 18011G16KT 22/01 A2993 RMK A01 T02220011  RH  025%=      5-min Rain = 0
KSP2 191750Z 17012KT 22/01 A2993 RMK A01 T02230011  RH  025%=      5-min Rain = 0
KSP2 191751Z 17013KT 22/01 A2992 RMK A01 T02220009  RH  024%=      5-min Rain = 0
KSP2 191752Z 18013G18KT 22/01 A2992 RMK A01 T02220010  RH  025%=      5-min Rain = 0
KSP2 191753Z 18016KT 23/01 A2992 RMK A01 T02250009  RH  024%=      5-min Rain = 0
KSP2 191754Z 18016KT 23/01 A2992 RMK A01 T02260006  RH  023%=      5-min Rain = 0
KSP2 191755Z 18015KT 23/01 A2992 RMK A01 T02270005  RH  023%=      5-min Rain = 0
KSP2 191756Z 19015KT 23/01 A2992 RMK A01 T02260005  RH  023%=      5-min Rain = 0
KSP2 191757Z 18015KT 23/01 A2992 RMK A01 T02270006  RH  023%=      5-min Rain = 0
KSP2 191758Z 18014KT 23/01 A2992 RMK A01 T02290007  RH  023%=      5-min Rain = 0
KSP2 191759Z 19014KT 23/01 A2992 RMK A01 T02300007  RH  023%=      5-min Rain = 0
KSP2 191800Z 18014KT 23/01 A2992 RMK A01 T02290008  RH  023%=      5-min Rain = 0
KSP2 191801Z 17014KT 23/01 A2992 RMK A01 T02290009  RH  023%=      5-min Rain = 0
KSP2 191802Z 17012KT 23/01 A2992 RMK A01 T02270008  RH  023%=      5-min Rain = 0
KSP2 191803Z 18012KT 22/01 A2992 RMK A01 T02240007  RH  024%=      5-min Rain = 0
KSP2 191804Z 18011G18KT 22/01 A2992 RMK A01 T02200007  RH  024%=      5-min Rain = 0
KSP2 191805Z 19015KT 22/01 A2992 RMK A01 T02180005  RH  024%=      5-min Rain = 0
KSP2 191806Z 19012KT 22/01 A2992 RMK A01 T02170006  RH  025%=      5-min Rain = 0
KSP2 191807Z 18011KT 22/01 A2992 RMK A01 T02180009  RH  025%=      5-min Rain = 0
KSP2 191808Z 18013KT 22/01 A2992 RMK A01 T02220011  RH  025%=      5-min Rain = 0
KSP2 191809Z 18016KT 22/01 A2992 RMK A01 T02230009  RH  024%=      5-min Rain = 0
KSP2 191810Z 19014KT 22/01 A2991 RMK A01 T02230009  RH  024%=      5-min Rain = 0
KSP2 191811Z 19012KT 22/01 A2991 RMK A01 T02210008  RH  024%=      5-min Rain = 0
KSP2 191812Z 18012KT 22/01 A2991 RMK A01 T02210009  RH  025%=      5-min Rain = 0
KSP2 191813Z 18012KT 22/01 A2991 RMK A01 T02210011  RH  025%=      5-min Rain = 0
KSP2 191814Z 18014KT 22/01 A2991 RMK A01 T02220010  RH  025%=      5-min Rain = 0
KSP2 191815Z 18016KT 22/01 A2991 RMK A01 T02220008  RH  024%=      5-min Rain = 0
KSP2 191816Z 19011KT 22/01 A2991 RMK A01 T02230008  RH  024%=      5-min Rain = 0
KSP2 191817Z 18011KT 22/01 A2991 RMK A01 T02240011  RH  024%=      5-min Rain = 0
KSP2 191818Z 18015KT 23/01 A2991 RMK A01 T02280011  RH  024%=      5-min Rain = 0
KSP2 191819Z 19012KT 23/01 A2991 RMK A01 T02290010  RH  024%=      5-min Rain = 0
KSP2 191820Z 18012KT 23/01 A2991 RMK A01 T02310012  RH  024%=      5-min Rain = 0
KSP2 191821Z 19011KT 23/01 A2991 RMK A01 T02330009  RH  023%=      5-min Rain = 0
KSP2 191822Z 19011KT 23/01 A2991 RMK A01 T02320010  RH  023%=      5-min Rain = 0
KSP2 191823Z 19015KT 23/01 A2991 RMK A01 T02320008  RH  023%=      5-min Rain = 0
KSP2 191824Z 20013KT 23/01 A2991 RMK A01 T02320005  RH  022%=      5-min Rain = 0
KSP2 191825Z 20014KT 23/00 A2991 RMK A01 T02310004  RH  022%=      5-min Rain = 0
KSP2 191826Z 20013KT 23/01 A2991 RMK A01 T02300005  RH  023%=      5-min Rain = 0
KSP2 191827Z 17012KT 23/01 A299 RMK A01 T02320010  RH  023%=      5-min Rain = 0
KSP2 191828Z 18014KT 24/01 A299 RMK A01 T02350011  RH  023%=      5-min Rain = 0
KSP2 191829Z 18013KT 24/01 A299 RMK A01 T02360010  RH  022%=      5-min Rain = 0
KSP2 191830Z 19013KT 24/01 A299 RMK A01 T02360009  RH  022%=      5-min Rain = 0
KSP2 191831Z 19013KT 24/01 A299 RMK A01 T02370005  RH  022%=      5-min Rain = 0
KSP2 191832Z 20014KT 24/01 A299 RMK A01 T02360006  RH  022%=      5-min Rain = 0
KSP2 191833Z 18013KT 24/01 A299 RMK A01 T02360008  RH  022%=      5-min Rain = 0
KSP2 191834Z 18016KT 24/01 A299 RMK A01 T02360005  RH  022%=      5-min Rain = 0
KSP2 191835Z 19011KT 24/01 A299 RMK A01 T02360005  RH  022%=      5-min Rain = 0
KSP2 191836Z 19012KT 24/01 A299 RMK A01 T02370007  RH  022%=      5-min Rain = 0
KSP2 191837Z 19015KT 24/01 A299 RMK A01 T02370007  RH  022%=      5-min Rain = 0
KSP2 191838Z 18013KT 24/01 A299 RMK A01 T02370006  RH  022%=      5-min Rain = 0
KSP2 191839Z 18016KT 24/01 A299 RMK A01 T02360005  RH  022%=      5-min Rain = 0
KSP2 191840Z 18016KT 24/01 A2989 RMK A01 T02350005  RH  022%=      5-min Rain = 0
KSP2 191841Z 19016KT 24/01 A2989 RMK A01 T02360005  RH  022%=      5-min Rain = 0
KSP2 191842Z 18016KT 24/01 A2989 RMK A01 T02360006  RH  022%=      5-min Rain = 0
KSP2 191843Z 19014KT 24/01 A2989 RMK A01 T02350007  RH  022%=      5-min Rain = 0
KSP2 191844Z 18014KT 24/01 A2989 RMK A01 T02350005  RH  022%=      5-min Rain = 0
KSP2 191845Z 18014KT 24/01 A2989 RMK A01 T02370005  RH  022%=      5-min Rain = 0
KSP2 191846Z 20016KT 24/00 A2989 RMK A01 T02390003  RH  021%=      5-min Rain = 0
KSP2 191847Z 18016KT 24/00 A2989 RMK A01 T02380004  RH  021%=      5-min Rain = 0
KSP2 191848Z 18014KT 24/00 A2989 RMK A01 T02390003  RH  021%=      5-min Rain = 0
KSP2 191849Z 18011KT 24/01 A2989 RMK A01 T02390006  RH  021%=      5-min Rain = 0
KSP2 191850Z 19012KT 24/01 A2989 RMK A01 T02420008  RH  021%=      5-min Rain = 0
KSP2 191851Z 19012KT 25/01 A2989 RMK A01 T02450005  RH  021%=      5-min Rain = 0
KSP2 191852Z 19013G18KT 24/01 A2989 RMK A01 T02440005  RH  021%=      5-min Rain = 0
KSP2 191853Z 19013G19KT 25/00 A2989 RMK A01 T02450004  RH  021%=      5-min Rain = 0
KSP2 191854Z 17012G17KT 24/00 A2988 RMK A01 T02430003  RH  021%=      5-min Rain = 0
KSP2 191855Z 18015KT 24/00 A2988 RMK A01 T02420002  RH  021%=      5-min Rain = 0
KSP2 191856Z 19015KT 24/00 A2988 RMK A01 T02420002  RH  021%=      5-min Rain = 0
KSP2 191857Z 17016KT 24/00 A2988 RMK A01 T02410003  RH  021%=      5-min Rain = 0
KSP2 191858Z 18017KT 24/00 A2988 RMK A01 T02420002  RH  021%=      5-min Rain = 0
KSP2 191859Z 17020KT 24/M00 A2988 RMK A01 T02421001  RH  020%=      5-min Rain = 0
KSP2 191900Z 18016KT 24/M00 A2988 RMK A01 T02401001  RH  020%=      5-min Rain = 0
KSP2 191901Z 18016KT 24/00 A2988 RMK A01 T02410001  RH  021%=      5-min Rain = 0
KSP2 191902Z 18014KT 24/00 A2988 RMK A01 T02420001  RH  020%=      5-min Rain = 0
KSP2 191903Z 18018KT 24/00 A2988 RMK A01 T02430001  RH  020%=      5-min Rain = 0
KSP2 191904Z 18018KT 24/M00 A2988 RMK A01 T02421001  RH  020%=      5-min Rain = 0
KSP2 191905Z 18015KT 24/M00 A2988 RMK A01 T02401001  RH  020%=      5-min Rain = 0
KSP2 191906Z 19015KT 24/00 A2988 RMK A01 T02400001  RH  021%=      5-min Rain = 0
KSP2 191907Z 18017KT 24/00 A2988 RMK A01 T02410003  RH  021%=      5-min Rain = 0
KSP2 191908Z 18016G21KT 24/00 A2988 RMK A01 T02430002  RH  020%=      5-min Rain = 0
KSP2 191909Z 18018KT 25/00 A2988 RMK A01 T02450003  RH  020%=      5-min Rain = 0
KSP2 191910Z 18015KT 25/00 A2988 RMK A01 T02460003  RH  020%=      5-min Rain = 0
KSP2 191911Z 18016KT 25/00 A2988 RMK A01 T02450000  RH  020%=      5-min Rain = 0
KSP2 191912Z 19013KT 24/00 A2988 RMK A01 T024400-0  RH  020%=      5-min Rain = 0
KSP2 191913Z 18014KT 24/00 A2987 RMK A01 T02430002  RH  020%=      5-min Rain = 0
KSP2 191914Z 18019KT 24/M00 A2987 RMK A01 T02401001  RH  020%=      5-min Rain = 0
KSP2 191915Z 18015KT 24/M00 A2987 RMK A01 T02371002  RH  021%=      5-min Rain = 0
KSP2 191916Z 19015KT 24/M00 A2987 RMK A01 T02361001  RH  021%=      5-min Rain = 0
KSP2 191917Z 19014G19KT 24/00 A2987 RMK A01 T02370001  RH  021%=      5-min Rain = 0
KSP2 191918Z 17016KT 24/00 A2987 RMK A01 T02400001  RH  021%=      5-min Rain = 0
KSP2 191919Z 19014KT 24/00 A2987 RMK A01 T02420002  RH  021%=      5-min Rain = 0
KSP2 191920Z 19018KT 25/00 A2987 RMK A01 T02450004  RH  020%=      5-min Rain = 0
KSP2 191921Z 18017KT 24/00 A2987 RMK A01 T024400-0  RH  020%=      5-min Rain = 0
KSP2 191922Z 17016KT 24/00 A2987 RMK A01 T02420001  RH  020%=      5-min Rain = 0
KSP2 191923Z 18016G22KT 24/00 A2987 RMK A01 T02440004  RH  021%=      5-min Rain = 0
KSP2 191924Z 18018KT 25/00 A2987 RMK A01 T02460003  RH  020%=      5-min Rain = 0
KSP2 191925Z 18014KT 24/00 A2987 RMK A01 T02440003  RH  020%=      5-min Rain = 0
KSP2 191926Z 18017KT 25/00 A2987 RMK A01 T02450004  RH  021%=      5-min Rain = 0
KSP2 191927Z 18016G21KT 25/01 A2987 RMK A01 T02450005  RH  021%=      5-min Rain = 0
KSP2 191928Z 18018G23KT 24/01 A2986 RMK A01 T02440005  RH  021%=      5-min Rain = 0
KSP2 191929Z 18015G20KT 24/00 A2987 RMK A01 T02440003  RH  020%=      5-min Rain = 0
KSP2 191930Z 18017G22KT 25/00 A2986 RMK A01 T02450004  RH  021%=      5-min Rain = 0
KSP2 191931Z 18017KT 25/00 A2986 RMK A01 T02450004  RH  020%=      5-min Rain = 0
KSP2 191932Z 19017G22KT 24/00 A2986 RMK A01 T02430004  RH  021%=      5-min Rain = 0
KSP2 191933Z 18018KT 24/00 A2986 RMK A01 T02430003  RH  021%=      5-min Rain = 0
KSP2 191934Z 18016KT 24/00 A2986 RMK A01 T02430004  RH  021%=      5-min Rain = 0
KSP2 191935Z 19018G23KT 24/00 A2986 RMK A01 T02430004  RH  021%=      5-min Rain = 0
KSP2 191936Z 18017KT 24/00 A2986 RMK A01 T02410004  RH  021%=      5-min Rain = 0
KSP2 191937Z 18020KT 24/01 A2986 RMK A01 T02410005  RH  021%=      5-min Rain = 0
KSP2 191938Z 18017KT 24/01 A2986 RMK A01 T02400005  RH  021%=      5-min Rain = 0
KSP2 191939Z 19018KT 24/01 A2986 RMK A01 T02390006  RH  021%=      5-min Rain = 0
KSP2 191940Z 20016KT 24/01 A2986 RMK A01 T02400007  RH  022%=      5-min Rain = 0
KSP2 191941Z 20019KT 24/01 A2986 RMK A01 T02420007  RH  021%=      5-min Rain = 0
KSP2 191942Z 19016KT 24/01 A2986 RMK A01 T02420007  RH  021%=      5-min Rain = 0
KSP2 191943Z 19016KT 24/01 A2986 RMK A01 T02410009  RH  022%=      5-min Rain = 0
KSP2 191944Z 18016KT 24/01 A2986 RMK A01 T02420010  RH  022%=      5-min Rain = 0
KSP2 191945Z 18018G23KT 24/01 A2986 RMK A01 T02430011  RH  022%=      5-min Rain = 0
KSP2 191946Z 18016KT 24/01 A2986 RMK A01 T02420009  RH  022%=      5-min Rain = 0
KSP2 191947Z 18017KT 24/01 A2986 RMK A01 T02410010  RH  022%=      5-min Rain = 0
KSP2 191948Z 18015KT 24/01 A2986 RMK A01 T02430010  RH  022%=      5-min Rain = 0
KSP2 191949Z 18019G24KT 24/01 A2986 RMK A01 T02430009  RH  022%=      5-min Rain = 0
KSP2 191950Z 18019KT 24/01 A2986 RMK A01 T02420009  RH  022%=      5-min Rain = 0
KSP2 191951Z 19018G23KT 24/01 A2986 RMK A01 T02410010  RH  022%=      5-min Rain = 0
KSP2 191952Z 19019G25KT 24/01 A2985 RMK A01 T02410010  RH  022%=      5-min Rain = 0
KSP2 191953Z 19017G22KT 24/01 A2986 RMK A01 T02420009  RH  022%=      5-min Rain = 0
KSP2 191954Z 19021KT 24/01 A2985 RMK A01 T02430009  RH  022%=      5-min Rain = 0
KSP2 191955Z 19018KT 24/01 A2985 RMK A01 T02420009  RH  022%=      5-min Rain = 0
KSP2 191956Z 19020KT 24/01 A2985 RMK A01 T02430011  RH  022%=      5-min Rain = 0
KSP2 191957Z 19021KT 24/01 A2985 RMK A01 T02440009  RH  021%=      5-min Rain = 0
KSP2 191958Z 20018G23KT 24/01 A2985 RMK A01 T02430007  RH  021%=      5-min Rain = 0
KSP2 191959Z 20017KT 24/01 A2985 RMK A01 T02440009  RH  021%=      5-min Rain = 0
KSP2 192000Z 19019KT 25/01 A2985 RMK A01 T02450010  RH  021%=      5-min Rain = 0
KSP2 192001Z 19020KT 25/01 A2985 RMK A01 T02450010  RH  021%=      5-min Rain = 0
KSP2 192002Z 19019G24KT 24/01 A2985 RMK A01 T02440009  RH  021%=      5-min Rain = 0
KSP2 192003Z 18018G23KT 24/01 A2985 RMK A01 T02430009  RH  021%=      5-min Rain = 0
KSP2 192004Z 18020KT 24/01 A2985 RMK A01 T02420009  RH  022%=      5-min Rain = 0
KSP2 192005Z 18018G23KT 24/01 A2985 RMK A01 T02420009  RH  022%=      5-min Rain = 0
KSP2 192006Z 18021KT 24/01 A2985 RMK A01 T02430010  RH  022%=      5-min Rain = 0
KSP2 192007Z 18022KT 24/01 A2985 RMK A01 T02420011  RH  022%=      5-min Rain = 0
KSP2 192008Z 19019KT 24/01 A2985 RMK A01 T02410010  RH  022%=      5-min Rain = 0
KSP2 192009Z 20015KT 24/01 A2985 RMK A01 T02410012  RH  022%=      5-min Rain = 0
KSP2 192010Z 20015KT 24/01 A2985 RMK A01 T02440012  RH  022%=      5-min Rain = 0
KSP2 192011Z 18019KT 25/01 A2985 RMK A01 T02450011  RH  022%=      5-min Rain = 0
KSP2 192012Z 19020G25KT 25/01 A2985 RMK A01 T02450011  RH  022%=      5-min Rain = 0
KSP2 192013Z 19018KT 25/01 A2985 RMK A01 T02450011  RH  022%=      5-min Rain = 0
KSP2 192014Z 19015KT 25/01 A2985 RMK A01 T02460011  RH  021%=      5-min Rain = 0
KSP2 192015Z 19014KT 25/01 A2984 RMK A01 T02460011  RH  021%=      5-min Rain = 0
KSP2 192016Z 19016KT 25/01 A2985 RMK A01 T02470012  RH  021%=      5-min Rain = 0
KSP2 192017Z 18018KT 25/01 A2984 RMK A01 T02470011  RH  021%=      5-min Rain = 0
KSP2 192018Z 19017KT 25/01 A2984 RMK A01 T02460012  RH  022%=      5-min Rain = 0
KSP2 192019Z 19017G22KT 25/01 A2984 RMK A01 T02460013  RH  022%=      5-min Rain = 0
KSP2 192020Z 18019KT 25/01 A2984 RMK A01 T02450014  RH  022%=      5-min Rain = 0
KSP2 192021Z 18019KT 24/01 A2984 RMK A01 T02440013  RH  022%=      5-min Rain = 0
KSP2 192022Z 18022KT 24/01 A2984 RMK A01 T02440013  RH  022%=      5-min Rain = 0
KSP2 192023Z 19019KT 24/01 A2984 RMK A01 T02440012  RH  022%=      5-min Rain = 0
KSP2 192024Z 20016G23KT 24/01 A2984 RMK A01 T02430011  RH  022%=      5-min Rain = 0
KSP2 192025Z 18017G24KT 25/01 A2984 RMK A01 T02450011  RH  022%=      5-min Rain = 0
KSP2 192026Z 18020KT 25/01 A2984 RMK A01 T02460010  RH  021%=      5-min Rain = 0
KSP2 192027Z 19021KT 25/01 A2984 RMK A01 T02460010  RH  021%=      5-min Rain = 0
KSP2 192028Z 18017KT 24/01 A2984 RMK A01 T02440010  RH  021%=      5-min Rain = 0
KSP2 192029Z 20017KT 24/01 A2984 RMK A01 T02440010  RH  021%=      5-min Rain = 0
KSP2 192030Z 21016G23KT 25/01 A2984 RMK A01 T02450009  RH  021%=      5-min Rain = 0
KSP2 192031Z 21020KT 25/01 A2984 RMK A01 T02470008  RH  021%=      5-min Rain = 0
KSP2 192032Z 19017G22KT 25/01 A2984 RMK A01 T02470008  RH  021%=      5-min Rain = 0
KSP2 192033Z 19019G24KT 25/01 A2984 RMK A01 T02470009  RH  021%=      5-min Rain = 0
KSP2 192034Z 19016KT 25/01 A2984 RMK A01 T02460009  RH  021%=      5-min Rain = 0
KSP2 192035Z 18018KT 25/01 A2984 RMK A01 T02450010  RH  021%=      5-min Rain = 0
KSP2 192036Z 18020KT 24/01 A2984 RMK A01 T02440009  RH  021%=      5-min Rain = 0
KSP2 192037Z 18016KT 24/01 A2984 RMK A01 T02400007  RH  022%=      5-min Rain = 0
KSP2 192038Z 19016KT 24/01 A2984 RMK A01 T02380008  RH  022%=      5-min Rain = 0
KSP2 192039Z 18015KT 24/01 A2984 RMK A01 T02370009  RH  022%=      5-min Rain = 0
KSP2 192040Z 19016G22KT 24/01 A2984 RMK A01 T02380011  RH  023%=      5-min Rain = 0
KSP2 192041Z 18018KT 24/01 A2984 RMK A01 T02390011  RH  022%=      5-min Rain = 0
KSP2 192042Z 18018KT 24/01 A2983 RMK A01 T02390011  RH  022%=      5-min Rain = 0
KSP2 192043Z 18020KT 24/01 A2984 RMK A01 T02400012  RH  022%=      5-min Rain = 0
KSP2 192044Z 19018G23KT 24/01 A2983 RMK A01 T02420011  RH  022%=      5-min Rain = 0
KSP2 192045Z 20018KT 24/01 A2983 RMK A01 T02420011  RH  022%=      5-min Rain = 0
KSP2 192046Z 20016KT 24/01 A2983 RMK A01 T02430010  RH  022%=      5-min Rain = 0
KSP2 192047Z 19021KT 24/01 A2983 RMK A01 T02430009  RH  021%=      5-min Rain = 0
KSP2 192048Z 19019G24KT 24/01 A2983 RMK A01 T02430008  RH  021%=      5-min Rain = 0
KSP2 192049Z 20019KT 24/01 A2983 RMK A01 T02430008  RH  021%=      5-min Rain = 0
KSP2 192050Z 20016KT 24/01 A2983 RMK A01 T02430008  RH  021%=      5-min Rain = 0
KSP2 192051Z 18017KT 25/01 A2983 RMK A01 T02450009  RH  021%=      5-min Rain = 0
KSP2 192052Z 18019KT 25/01 A2983 RMK A01 T02450007  RH  021%=      5-min Rain = 0
KSP2 192053Z 18019KT 24/01 A2983 RMK A01 T02440007  RH  021%=      5-min Rain = 0
KSP2 192054Z 18017KT 24/01 A2983 RMK A01 T02440008  RH  021%=      5-min Rain = 0
KSP2 192055Z 19017KT 24/01 A2983 RMK A01 T02440009  RH  021%=      5-min Rain = 0
KSP2 192056Z 19018KT 25/01 A2983 RMK A01 T02450009  RH  021%=      5-min Rain = 0
KSP2 192057Z 18018KT 25/01 A2983 RMK A01 T02450009  RH  021%=      5-min Rain = 0
KSP2 192058Z 19018G24KT 25/01 A2983 RMK A01 T02450008  RH  021%=      5-min Rain = 0
KSP2 192059Z 19020KT 25/01 A2983 RMK A01 T02450006  RH  021%=      5-min Rain = 0
KSP2 192100Z 19016KT 24/01 A2983 RMK A01 T02440006  RH  021%=      5-min Rain = 0
KSP2 192101Z 19016KT 24/01 A2983 RMK A01 T02440007  RH  021%=      5-min Rain = 0
KSP2 192102Z 20019G24KT 25/01 A2983 RMK A01 T02450008  RH  021%=      5-min Rain = 0
KSP2 192103Z 19019KT 25/01 A2983 RMK A01 T02450006  RH  021%=      5-min Rain = 0
KSP2 192104Z 19017KT 24/01 A2983 RMK A01 T02440006  RH  021%=      5-min Rain = 0
KSP2 192105Z 19018KT 24/01 A2983 RMK A01 T02440007  RH  021%=      5-min Rain = 0
KSP2 192106Z 18016G21KT 25/01 A2983 RMK A01 T02450005  RH  021%=      5-min Rain = 0
KSP2 192107Z 19018KT 24/01 A2983 RMK A01 T02440005  RH  021%=      5-min Rain = 0
KSP2 192108Z 19016G21KT 24/01 A2983 RMK A01 T02430007  RH  021%=      5-min Rain = 0
KSP2 192109Z 19013G19KT 25/01 A2983 RMK A01 T02450009  RH  021%=      5-min Rain = 0
KSP2 192110Z 19016G21KT 25/01 A2983 RMK A01 T02460009  RH  021%=      5-min Rain = 0
KSP2 192111Z 20017KT 25/01 A2983 RMK A01 T02460008  RH  021%=      5-min Rain = 0
KSP2 192112Z 20018KT 25/01 A2983 RMK A01 T02460007  RH  021%=      5-min Rain = 0
KSP2 192113Z 19019KT 25/01 A2983 RMK A01 T02450008  RH  021%=      5-min Rain = 0
KSP2 192114Z 19018KT 25/01 A2983 RMK A01 T02450009  RH  021%=      5-min Rain = 0
KSP2 192115Z 18018KT 24/01 A2983 RMK A01 T02440009  RH  021%=      5-min Rain = 0
KSP2 192116Z 20017KT 24/01 A2983 RMK A01 T02440007  RH  021%=      5-min Rain = 0
KSP2 192117Z 20015KT 24/01 A2983 RMK A01 T02440006  RH  021%=      5-min Rain = 0
KSP2 192118Z 20015KT 24/01 A2983 RMK A01 T02440007  RH  021%=      5-min Rain = 0
KSP2 192119Z 20015KT 25/01 A2983 RMK A01 T02460006  RH  021%=      5-min Rain = 0
KSP2 192120Z 20016G21KT 25/01 A2983 RMK A01 T02470006  RH  021%=      5-min Rain = 0
KSP2 192121Z 19015G20KT 25/01 A2983 RMK A01 T02460005  RH  021%=      5-min Rain = 0
KSP2 192122Z 18016KT 25/01 A2983 RMK A01 T02450006  RH  021%=      5-min Rain = 0
KSP2 192123Z 18019KT 24/01 A2982 RMK A01 T02430006  RH  021%=      5-min Rain = 0
KSP2 192124Z 19017G22KT 24/01 A2982 RMK A01 T02400005  RH  021%=      5-min Rain = 0
KSP2 192125Z 19017KT 24/00 A2983 RMK A01 T02380004  RH  021%=      5-min Rain = 0
KSP2 192126Z 19017KT 24/00 A2983 RMK A01 T02380004  RH  021%=      5-min Rain = 0
KSP2 192127Z 20016KT 24/01 A2983 RMK A01 T02380005  RH  021%=      5-min Rain = 0
KSP2 192128Z 20018KT 24/00 A2983 RMK A01 T02390004  RH  021%=      5-min Rain = 0
KSP2 192129Z 20018G23KT 24/00 A2983 RMK A01 T02400002  RH  021%=      5-min Rain = 0
KSP2 192130Z 19015KT 24/00 A2983 RMK A01 T02400004  RH  021%=      5-min Rain = 0
KSP2 192131Z 19014KT 24/01 A2983 RMK A01 T02410008  RH  022%=      5-min Rain = 0
KSP2 192132Z 19016KT 24/01 A2983 RMK A01 T02400009  RH  022%=      5-min Rain = 0
KSP2 192133Z 19017KT 24/00 A2983 RMK A01 T02410004  RH  021%=      5-min Rain = 0
KSP2 192134Z 20015KT 24/00 A2983 RMK A01 T02400004  RH  021%=      5-min Rain = 0
KSP2 192135Z 20017KT 24/01 A2983 RMK A01 T02400006  RH  021%=      5-min Rain = 0
KSP2 192136Z 19012KT 24/01 A2983 RMK A01 T02420007  RH  021%=      5-min Rain = 0
KSP2 192137Z 19014KT 24/01 A2982 RMK A01 T02430010  RH  022%=      5-min Rain = 0
KSP2 192138Z 19013G18KT 24/01 A2983 RMK A01 T02440011  RH  022%=      5-min Rain = 0
KSP2 192139Z 19015KT 24/01 A2982 RMK A01 T02440011  RH  022%=      5-min Rain = 0
KSP2 192140Z 19014KT 24/01 A2982 RMK A01 T02440010  RH  021%=      5-min Rain = 0
KSP2 192141Z 18016G21KT 24/01 A2982 RMK A01 T02440010  RH  022%=      5-min Rain = 0
KSP2 192142Z 18018KT 24/01 A2982 RMK A01 T02430008  RH  021%=      5-min Rain = 0
KSP2 192143Z 18017KT 24/01 A2982 RMK A01 T02420007  RH  021%=      5-min Rain = 0
KSP2 192144Z 18014KT 24/01 A2982 RMK A01 T02410009  RH  022%=      5-min Rain = 0
KSP2 192145Z 18015G20KT 24/01 A2982 RMK A01 T02410009  RH  022%=      5-min Rain = 0
KSP2 192146Z 18013KT 24/01 A2982 RMK A01 T02410010  RH  022%=      5-min Rain = 0
KSP2 192147Z 18017KT 24/01 A2982 RMK A01 T02420011  RH  022%=      5-min Rain = 0
KSP2 192148Z 18015KT 24/01 A2982 RMK A01 T02430010  RH  022%=      5-min Rain = 0
KSP2 192149Z 19012KT 24/01 A2982 RMK A01 T02420010  RH  022%=      5-min Rain = 0
KSP2 192150Z 19010KT 24/01 A2982 RMK A01 T02410011  RH  022%=      5-min Rain = 0
KSP2 192151Z 18013G18KT 24/01 A2982 RMK A01 T02420012  RH  022%=      5-min Rain = 0
KSP2 192152Z 18017KT 24/01 A2982 RMK A01 T02420010  RH  022%=      5-min Rain = 0
KSP2 192153Z 18016KT 24/01 A2982 RMK A01 T02410009  RH  022%=      5-min Rain = 0
KSP2 192154Z 18017G22KT 24/01 A2982 RMK A01 T02400008  RH  022%=      5-min Rain = 0
KSP2 192155Z 18018KT 24/01 A2982 RMK A01 T02390008  RH  022%=      5-min Rain = 0
KSP2 192156Z 18014G19KT 24/01 A2982 RMK A01 T02390008  RH  022%=      5-min Rain = 0
KSP2 192157Z 18016G21KT 24/01 A2982 RMK A01 T02390008  RH  022%=      5-min Rain = 0
KSP2 192158Z 18017G22KT 24/01 A2982 RMK A01 T02390008  RH  022%=      5-min Rain = 0
KSP2 192159Z 18018G24KT 24/01 A2982 RMK A01 T02390007  RH  022%=      5-min Rain = 0
KSP2 192200Z 18018G24KT 24/01 A2982 RMK A01 T02390008  RH  022%=      5-min Rain = 0
KSP2 192201Z 18019KT 24/01 A2982 RMK A01 T02380007  RH  022%=      5-min Rain = 0
KSP2 192202Z 18020KT 24/01 A2982 RMK A01 T02380008  RH  022%=      5-min Rain = 0
KSP2 192203Z 18016KT 24/01 A2982 RMK A01 T02380008  RH  022%=      5-min Rain = 0
KSP2 192204Z 18016KT 24/01 A2982 RMK A01 T02370008  RH  022%=      5-min Rain = 0
KSP2 192205Z 19017KT 24/01 A2982 RMK A01 T02370009  RH  022%=      5-min Rain = 0
KSP2 192206Z 18013G19KT 24/01 A2982 RMK A01 T02370009  RH  022%=      5-min Rain = 0
KSP2 192207Z 18014G19KT 24/01 A2982 RMK A01 T02380010  RH  022%=      5-min Rain = 0
KSP2 192208Z 18018KT 24/01 A2982 RMK A01 T02380008  RH  022%=      5-min Rain = 0
KSP2 192209Z 19016KT 24/01 A2982 RMK A01 T02380007  RH  022%=      5-min Rain = 0
KSP2 192210Z 18016KT 24/01 A2982 RMK A01 T02370007  RH  022%=      5-min Rain = 0
KSP2 192211Z 18014KT 24/01 A2982 RMK A01 T02370008  RH  022%=      5-min Rain = 0
KSP2 192212Z 18017KT 24/01 A2982 RMK A01 T02370007  RH  022%=      5-min Rain = 0
KSP2 192213Z 19016G21KT 24/01 A2982 RMK A01 T02360005  RH  022%=      5-min Rain = 0
KSP2 192214Z 19016G21KT 24/01 A2982 RMK A01 T02360006  RH  022%=      5-min Rain = 0
KSP2 192215Z 19014G20KT 24/01 A2982 RMK A01 T02360006  RH  022%=      5-min Rain = 0
KSP2 192216Z 19015G20KT 24/01 A2982 RMK A01 T02360007  RH  022%=      5-min Rain = 0
KSP2 192217Z 19015G20KT 24/01 A2982 RMK A01 T02360007  RH  022%=      5-min Rain = 0
KSP2 192218Z 19014KT 24/01 A2982 RMK A01 T02360007  RH  022%=      5-min Rain = 0
KSP2 192219Z 18015KT 24/01 A2982 RMK A01 T02360007  RH  022%=      5-min Rain = 0
KSP2 192220Z 18017KT 24/01 A2982 RMK A01 T02360008  RH  022%=      5-min Rain = 0
KSP2 192221Z 19015KT 24/01 A2982 RMK A01 T02350007  RH  022%=      5-min Rain = 0
KSP2 192222Z 19013KT 23/01 A2982 RMK A01 T02340007  RH  022%=      5-min Rain = 0
KSP2 192223Z 19013KT 23/01 A2982 RMK A01 T02340008  RH  022%=      5-min Rain = 0
KSP2 192224Z 19012KT 23/01 A2982 RMK A01 T02330007  RH  023%=      5-min Rain = 0
KSP2 192225Z 19010KT 23/01 A2982 RMK A01 T02330008  RH  023%=      5-min Rain = 0
KSP2 192226Z 19010KT 23/01 A2982 RMK A01 T02330009  RH  023%=      5-min Rain = 0
KSP2 192227Z 19009KT 23/01 A2982 RMK A01 T02330009  RH  023%=      5-min Rain = 0
KSP2 192228Z 19011KT 23/01 A2982 RMK A01 T02330009  RH  023%=      5-min Rain = 0
KSP2 192229Z 19014G19KT 23/01 A2982 RMK A01 T02330008  RH  023%=      5-min Rain = 0
KSP2 192230Z 18016KT 23/01 A2982 RMK A01 T02320007  RH  023%=      5-min Rain = 0
KSP2 192231Z 18016KT 23/01 A2982 RMK A01 T02320006  RH  022%=      5-min Rain = 0
KSP2 192232Z 18018KT 23/01 A2982 RMK A01 T02310005  RH  022%=      5-min Rain = 0
KSP2 192233Z 18013KT 23/00 A2982 RMK A01 T02310004  RH  022%=      5-min Rain = 0
KSP2 192234Z 19014KT 23/01 A2982 RMK A01 T02300005  RH  022%=      5-min Rain = 0
KSP2 192235Z 19015KT 23/01 A2982 RMK A01 T02300005  RH  023%=      5-min Rain = 0
KSP2 192236Z 19014KT 23/01 A2982 RMK A01 T02300006  RH  023%=      5-min Rain = 0
KSP2 192237Z 19015KT 23/01 A2982 RMK A01 T02300006  RH  023%=      5-min Rain = 0
KSP2 192238Z 18012KT 23/01 A2982 RMK A01 T02300008  RH  023%=      5-min Rain = 0
KSP2 192239Z 18015KT 23/01 A2982 RMK A01 T02290008  RH  023%=      5-min Rain = 0
KSP2 192240Z 18014KT 23/01 A2982 RMK A01 T02290008  RH  023%=      5-min Rain = 0
KSP2 192241Z 18012KT 23/01 A2982 RMK A01 T02280009  RH  024%=      5-min Rain = 0
KSP2 192242Z 18011KT 23/01 A2982 RMK A01 T02280010  RH  024%=      5-min Rain = 0
KSP2 192243Z 18012KT 23/01 A2982 RMK A01 T02270010  RH  024%=      5-min Rain = 0
KSP2 192244Z 18013KT 23/01 A2982 RMK A01 T02270010  RH  024%=      5-min Rain = 0
KSP2 192245Z 19012KT 23/01 A2982 RMK A01 T02270010  RH  024%=      5-min Rain = 0
KSP2 192246Z 18012KT 23/01 A2982 RMK A01 T02260010  RH  024%=      5-min Rain = 0
KSP2 192247Z 18012KT 23/01 A2982 RMK A01 T02260010  RH  024%=      5-min Rain = 0
KSP2 192248Z 18013KT 23/01 A2982 RMK A01 T02260010  RH  024%=      5-min Rain = 0
KSP2 192249Z 18012KT 23/01 A2982 RMK A01 T02250010  RH  024%=      5-min Rain = 0
KSP2 192250Z 18012KT 23/01 A2982 RMK A01 T02250011  RH  024%=      5-min Rain = 0
KSP2 192251Z 18011KT 22/01 A2982 RMK A01 T02240010  RH  024%=      5-min Rain = 0
KSP2 192252Z 18011KT 22/01 A2982 RMK A01 T02230011  RH  025%=      5-min Rain = 0
KSP2 192253Z 18013KT 22/01 A2982 RMK A01 T02220011  RH  025%=      5-min Rain = 0
KSP2 192254Z 18011KT 22/01 A2982 RMK A01 T02220012  RH  025%=      5-min Rain = 0
KSP2 192255Z 18010KT 22/01 A2982 RMK A01 T02220012  RH  025%=      5-min Rain = 0
KSP2 192256Z 18010KT 22/01 A2982 RMK A01 T02210012  RH  025%=      5-min Rain = 0
KSP2 192257Z 18009KT 22/01 A2982 RMK A01 T02200012  RH  025%=      5-min Rain = 0
KSP2 192258Z 18009KT 22/01 A2982 RMK A01 T02200013  RH  025%=      5-min Rain = 0
KSP2 192259Z 18011KT 22/01 A2982 RMK A01 T02190013  RH  026%=      5-min Rain = 0
KSP2 192300Z 18009KT 22/01 A2982 RMK A01 T02180013  RH  026%=      5-min Rain = 0
KSP2 192301Z 17011KT 22/01 A2982 RMK A01 T02160013  RH  026%=      5-min Rain = 0
KSP2 192302Z 18011KT 22/01 A2982 RMK A01 T02150014  RH  026%=      5-min Rain = 0
KSP2 192303Z 18011KT 21/01 A2982 RMK A01 T02140014  RH  027%=      5-min Rain = 0
KSP2 192304Z 18009KT 21/02 A2982 RMK A01 T02140015  RH  027%=      5-min Rain = 0
KSP2 192305Z 17008KT 21/02 A2982 RMK A01 T02130015  RH  027%=      5-min Rain = 0
KSP2 192306Z 18010KT 21/01 A2982 RMK A01 T02120014  RH  027%=      5-min Rain = 0
KSP2 192307Z 18010KT 21/01 A2982 RMK A01 T02120014  RH  027%=      5-min Rain = 0
KSP2 192308Z 17010KT 21/02 A2982 RMK A01 T02120015  RH  027%=      5-min Rain = 0
KSP2 192309Z 17010KT 21/02 A2981 RMK A01 T02110015  RH  027%=      5-min Rain = 0
KSP2 192310Z 17010KT 21/02 A2981 RMK A01 T02100015  RH  027%=      5-min Rain = 0
KSP2 192311Z 17009KT 21/01 A2981 RMK A01 T02080014  RH  028%=      5-min Rain = 0
KSP2 192312Z 17009KT 21/01 A2981 RMK A01 T02070014  RH  028%=      5-min Rain = 0
KSP2 192313Z 17009KT 21/01 A2981 RMK A01 T02060013  RH  028%=      5-min Rain = 0
KSP2 192314Z 18009KT 21/01 A2981 RMK A01 T02050013  RH  028%=      5-min Rain = 0
KSP2 192315Z 17009KT 20/01 A2981 RMK A01 T02030013  RH  028%=      5-min Rain = 0
KSP2 192316Z 17010KT 20/01 A2981 RMK A01 T02020012  RH  028%=      5-min Rain = 0
KSP2 192317Z 17009KT 20/01 A2981 RMK A01 T02010013  RH  028%=      5-min Rain = 0
KSP2 192318Z 17009KT 20/01 A2981 RMK A01 T02000012  RH  029%=      5-min Rain = 0
KSP2 192319Z 17009KT 20/01 A2981 RMK A01 T01990012  RH  029%=      5-min Rain = 0
KSP2 192320Z 18009KT 20/01 A2981 RMK A01 T01980012  RH  029%=      5-min Rain = 0
KSP2 192321Z 18009KT 20/01 A2982 RMK A01 T01970012  RH  029%=      5-min Rain = 0
KSP2 192322Z 18009KT 20/01 A2982 RMK A01 T01960011  RH  029%=      5-min Rain = 0
KSP2 192323Z 18008KT 20/01 A2982 RMK A01 T01950012  RH  029%=      5-min Rain = 0
KSP2 192324Z 17008KT 19/01 A2982 RMK A01 T01940012  RH  029%=      5-min Rain = 0
KSP2 192325Z 18008KT 19/01 A2982 RMK A01 T01930011  RH  030%=      5-min Rain = 0
KSP2 192326Z 17008KT 19/01 A2982 RMK A01 T01920011  RH  030%=      5-min Rain = 0
KSP2 192327Z 17008KT 19/01 A2982 RMK A01 T01900011  RH  030%=      5-min Rain = 0
KSP2 192328Z 17008KT 19/01 A2982 RMK A01 T01890011  RH  030%=      5-min Rain = 0
KSP2 192329Z 17008KT 19/01 A2982 RMK A01 T01870010  RH  030%=      5-min Rain = 0
KSP2 192330Z 17008KT 19/01 A2982 RMK A01 T01860010  RH  031%=      5-min Rain = 0
KSP2 192331Z 18007KT 19/01 A2982 RMK A01 T01850011  RH  031%=      5-min Rain = 0
KSP2 192332Z 17007KT 18/01 A2982 RMK A01 T01830010  RH  031%=      5-min Rain = 0
KSP2 192333Z 17007KT 18/01 A2982 RMK A01 T01820010  RH  032%=      5-min Rain = 0
KSP2 192334Z 18007KT 18/01 A2982 RMK A01 T01800010  RH  032%=      5-min Rain = 0
KSP2 192335Z 18007KT 18/01 A2982 RMK A01 T01790010  RH  032%=      5-min Rain = 0
KSP2 192336Z 17008KT 18/01 A2982 RMK A01 T01780011  RH  032%=      5-min Rain = 0
KSP2 192337Z 18007KT 18/01 A2982 RMK A01 T01760010  RH  033%=      5-min Rain = 0
KSP2 192338Z 17007KT 18/01 A2982 RMK A01 T01750011  RH  033%=      5-min Rain = 0
KSP2 192339Z 17007KT 17/01 A2982 RMK A01 T01730010  RH  033%=      5-min Rain = 0
KSP2 192340Z 17007KT 17/01 A2982 RMK A01 T01720011  RH  034%=      5-min Rain = 0
KSP2 192341Z 17007KT 17/01 A2982 RMK A01 T01710011  RH  034%=      5-min Rain = 0
KSP2 192342Z 17007KT 17/01 A2982 RMK A01 T01690011  RH  034%=      5-min Rain = 0
KSP2 192343Z 17007KT 17/01 A2982 RMK A01 T01680011  RH  035%=      5-min Rain = 0
KSP2 192344Z 16007KT 17/01 A2982 RMK A01 T01660011  RH  035%=      5-min Rain = 0
KSP2 192345Z 17008KT 17/01 A2982 RMK A01 T01650011  RH  035%=      5-min Rain = 0
KSP2 192346Z 17008KT 16/01 A2982 RMK A01 T01640011  RH  036%=      5-min Rain = 0
KSP2 192347Z 17008KT 16/01 A2982 RMK A01 T01630011  RH  036%=      5-min Rain = 0
KSP2 192348Z 17008KT 16/01 A2982 RMK A01 T01620011  RH  036%=      5-min Rain = 0
KSP2 192349Z 17007KT 16/01 A2982 RMK A01 T01610011  RH  036%=      5-min Rain = 0
KSP2 192350Z 17007KT 16/01 A2982 RMK A01 T01610011  RH  036%=      5-min Rain = 0
KSP2 192351Z 17007KT 16/01 A2982 RMK A01 T01600011  RH  036%=      5-min Rain = 0
KSP2 192352Z 17007KT 16/01 A2982 RMK A01 T01590011  RH  037%=      5-min Rain = 0
KSP2 192353Z 17007KT 16/01 A2982 RMK A01 T01580011  RH  037%=      5-min Rain = 0
KSP2 192354Z 17007KT 16/01 A2982 RMK A01 T01570011  RH  037%=      5-min Rain = 0
KSP2 192355Z 17007KT 16/01 A2982 RMK A01 T01560010  RH  037%=      5-min Rain = 0
KSP2 192356Z 17007KT 15/01 A2982 RMK A01 T01540010  RH  038%=      5-min Rain = 0
KSP2 192357Z 17007KT 15/01 A2982 RMK A01 T01530011  RH  038%=      5-min Rain = 0
KSP2 192358Z 17007KT 15/01 A2982 RMK A01 T01520011  RH  038%=      5-min Rain = 0
KSP2 192359Z 17008KT 15/01 A2982 RMK A01 T01520011  RH  038%=      5-min Rain = 0
KSP2 200000Z 17007KT 15/01 A2982 RMK A01 T01510011  RH  039%=      5-min Rain = 0
KSP2 200001Z 17007KT 15/01 A2982 RMK A01 T01510011  RH  039%=      5-min Rain = 0
KSP2 200002Z 17007KT 15/01 A2982 RMK A01 T01500011  RH  039%=      5-min Rain = 0
KSP2 200003Z 17007KT 15/01 A2982 RMK A01 T01490012  RH  039%=      5-min Rain = 0
KSP2 200004Z 17007KT 15/01 A2982 RMK A01 T01480012  RH  040%=      5-min Rain = 0
KSP2 200005Z 17007KT 15/01 A2982 RMK A01 T01470012  RH  040%=      5-min Rain = 0
KSP2 200006Z 17007KT 15/01 A2982 RMK A01 T01460012  RH  040%=      5-min Rain = 0
KSP2 200007Z 17006KT 15/01 A2982 RMK A01 T01450012  RH  040%=      5-min Rain = 0
KSP2 200008Z 17006KT 14/01 A2982 RMK A01 T01440012  RH  041%=      5-min Rain = 0
KSP2 200009Z 17006KT 14/01 A2982 RMK A01 T01430012  RH  041%=      5-min Rain = 0
KSP2 200010Z 17006KT 14/01 A2982 RMK A01 T01420012  RH  041%=      5-min Rain = 0
KSP2 200011Z 17006KT 14/01 A2982 RMK A01 T01410012  RH  041%=      5-min Rain = 0
KSP2 200012Z 17006KT 14/01 A2982 RMK A01 T01400012  RH  042%=      5-min Rain = 0
KSP2 200013Z 17005KT 14/01 A2982 RMK A01 T01390012  RH  042%=      5-min Rain = 0
KSP2 200014Z 17005KT 14/01 A2982 RMK A01 T01380011  RH  042%=      5-min Rain = 0
KSP2 200015Z 17005KT 14/01 A2982 RMK A01 T01370011  RH  042%=      5-min Rain = 0
KSP2 200016Z 17005KT 14/01 A2982 RMK A01 T01350011  RH  043%=      5-min Rain = 0
KSP2 200017Z 17005KT 13/01 A2982 RMK A01 T01340011  RH  043%=      5-min Rain = 0
KSP2 200018Z 17005KT 13/01 A2982 RMK A01 T01330011  RH  043%=      5-min Rain = 0
KSP2 200019Z 17005KT 13/01 A2982 RMK A01 T01310010  RH  044%=      5-min Rain = 0
KSP2 200020Z 17005KT 13/01 A2982 RMK A01 T01300010  RH  044%=      5-min Rain = 0
KSP2 200021Z 17005KT 13/01 A2982 RMK A01 T01290010  RH  044%=      5-min Rain = 0
KSP2 200022Z 17005KT 13/01 A2982 RMK A01 T01270011  RH  045%=      5-min Rain = 0
KSP2 200023Z 17005KT 13/01 A2982 RMK A01 T01270010  RH  045%=      5-min Rain = 0
KSP2 200024Z 17006KT 13/01 A2982 RMK A01 T01260011  RH  045%=      5-min Rain = 0
KSP2 200025Z 17006KT 13/01 A2982 RMK A01 T01250010  RH  045%=      5-min Rain = 0
KSP2 200026Z 16006KT 12/01 A2982 RMK A01 T01240009  RH  046%=      5-min Rain = 0
KSP2 200027Z 17006KT 12/01 A2982 RMK A01 T01220009  RH  046%=      5-min Rain = 0
KSP2 200028Z 17006KT 12/01 A2982 RMK A01 T01210009  RH  046%=      5-min Rain = 0
KSP2 200029Z 17006KT 12/01 A2982 RMK A01 T01200009  RH  047%=      5-min Rain = 0
KSP2 200030Z 18006KT 12/01 A2982 RMK A01 T01190009  RH  047%=      5-min Rain = 0
KSP2 200031Z 17006KT 12/01 A2982 RMK A01 T01190010  RH  047%=      5-min Rain = 0
KSP2 200032Z 18006KT 12/01 A2983 RMK A01 T01190010  RH  047%=      5-min Rain = 0
KSP2 200033Z 17006KT 12/01 A2983 RMK A01 T01190010  RH  047%=      5-min Rain = 0
KSP2 200034Z 18005KT 12/01 A2983 RMK A01 T01190010  RH  047%=      5-min Rain = 0
KSP2 200035Z 18005KT 12/01 A2983 RMK A01 T01180010  RH  047%=      5-min Rain = 0
KSP2 200036Z 18005KT 12/01 A2982 RMK A01 T01180010  RH  048%=      5-min Rain = 0
KSP2 200037Z 18005KT 12/01 A2982 RMK A01 T01170010  RH  048%=      5-min Rain = 0
KSP2 200038Z 18005KT 12/01 A2982 RMK A01 T01170010  RH  048%=      5-min Rain = 0
KSP2 200039Z 18005KT 12/01 A2982 RMK A01 T01160009  RH  048%=      5-min Rain = 0
KSP2 200040Z 18004KT 12/01 A2983 RMK A01 T01150008  RH  048%=      5-min Rain = 0
KSP2 200041Z 18004KT 11/01 A2983 RMK A01 T01130007  RH  048%=      5-min Rain = 0
KSP2 200042Z 17005KT 11/01 A2983 RMK A01 T01130008  RH  049%=      5-min Rain = 0
KSP2 200043Z 17005KT 11/01 A2982 RMK A01 T01120008  RH  049%=      5-min Rain = 0
KSP2 200044Z 17005KT 11/01 A2982 RMK A01 T01120008  RH  049%=      5-min Rain = 0
KSP2 200045Z 17005KT 11/01 A2982 RMK A01 T01110007  RH  049%=      5-min Rain = 0
KSP2 200046Z 17005KT 11/01 A2982 RMK A01 T01100007  RH  049%=      5-min Rain = 0
KSP2 200047Z 17005KT 11/01 A2982 RMK A01 T01090007  RH  050%=      5-min Rain = 0
KSP2 200048Z 17005KT 11/01 A2982 RMK A01 T01080007  RH  050%=      5-min Rain = 0
KSP2 200049Z 17005KT 11/01 A2982 RMK A01 T01070008  RH  050%=      5-min Rain = 0
KSP2 200050Z 17006KT 11/01 A2982 RMK A01 T01060008  RH  051%=      5-min Rain = 0
KSP2 200051Z 17005KT 11/01 A2982 RMK A01 T01060008  RH  051%=      5-min Rain = 0
KSP2 200052Z 17005KT 11/01 A2982 RMK A01 T01060009  RH  051%=      5-min Rain = 0
KSP2 200053Z 17005KT 11/01 A2982 RMK A01 T01060010  RH  051%=      5-min Rain = 0
KSP2 200054Z 17005KT 11/01 A2982 RMK A01 T01060009  RH  051%=      5-min Rain = 0
KSP2 200055Z 17005KT 11/01 A2982 RMK A01 T01060009  RH  051%=      5-min Rain = 0
KSP2 200056Z 17005KT 11/01 A2982 RMK A01 T01060010  RH  051%=      5-min Rain = 0
KSP2 200057Z 17005KT 11/01 A2982 RMK A01 T01060009  RH  051%=      5-min Rain = 0
KSP2 200058Z 17005KT 11/01 A2982 RMK A01 T01060009  RH  051%=      5-min Rain = 0
KSP2 200059Z 17006KT 11/01 A2982 RMK A01 T01060009  RH  051%=      5-min Rain = 0
KSP2 200100Z 18005KT 11/01 A2982 RMK A01 T01060009  RH  051%=      5-min Rain = 0
KSP2 200101Z 18005KT 11/01 A2982 RMK A01 T01050008  RH  051%=      5-min Rain = 0
KSP2 200102Z 18006KT 11/01 A2982 RMK A01 T01060008  RH  051%=      5-min Rain = 0
KSP2 200103Z 18006KT 11/01 A2982 RMK A01 T01050008  RH  051%=      5-min Rain = 0
KSP2 200104Z 18006KT 11/01 A2982 RMK A01 T01050008  RH  051%=      5-min Rain = 0
KSP2 200105Z 18006KT 11/01 A2982 RMK A01 T01050008  RH  051%=      5-min Rain = 0
KSP2 200106Z 17006KT 11/01 A2982 RMK A01 T01050008  RH  051%=      5-min Rain = 0
KSP2 200107Z 17006KT 11/01 A2982 RMK A01 T01050007  RH  051%=      5-min Rain = 0
KSP2 200108Z 17006KT 10/01 A2982 RMK A01 T01040007  RH  051%=      5-min Rain = 0
KSP2 200109Z 17006KT 10/01 A2982 RMK A01 T01040007  RH  051%=      5-min Rain = 0
KSP2 200110Z 17006KT 10/01 A2982 RMK A01 T01030006  RH  051%=      5-min Rain = 0
KSP2 200111Z 17006KT 10/01 A2982 RMK A01 T01020007  RH  051%=      5-min Rain = 0
KSP2 200112Z 17006KT 10/01 A2982 RMK A01 T01020007  RH  052%=      5-min Rain = 0
KSP2 200113Z 17006KT 10/01 A2982 RMK A01 T01020008  RH  052%=      5-min Rain = 0
KSP2 200114Z 17006KT 10/01 A2982 RMK A01 T01020008  RH  052%=      5-min Rain = 0
KSP2 200115Z 17006KT 10/01 A2982 RMK A01 T01020008  RH  052%=      5-min Rain = 0
KSP2 200116Z 17006KT 10/01 A2982 RMK A01 T01020008  RH  052%=      5-min Rain = 0
KSP2 200117Z 17006KT 10/01 A2982 RMK A01 T01020008  RH  052%=      5-min Rain = 0
KSP2 200118Z 17006KT 10/01 A2982 RMK A01 T01020008  RH  052%=      5-min Rain = 0
KSP2 200119Z 17006KT 10/01 A2982 RMK A01 T01020008  RH  052%=      5-min Rain = 0
KSP2 200120Z 18006KT 10/01 A2982 RMK A01 T01020009  RH  052%=      5-min Rain = 0
KSP2 200121Z 18006KT 10/01 A2982 RMK A01 T01020009  RH  052%=      5-min Rain = 0
KSP2 200122Z 18005KT 10/01 A2982 RMK A01 T01030009  RH  052%=      5-min Rain = 0
KSP2 200123Z 18006KT 10/01 A2982 RMK A01 T01030010  RH  053%=      5-min Rain = 0
KSP2 200124Z 18006KT 10/01 A2982 RMK A01 T01030011  RH  053%=      5-min Rain = 0
KSP2 200125Z 18006KT 10/01 A2982 RMK A01 T01040011  RH  053%=      5-min Rain = 0
KSP2 200126Z 18006KT 11/01 A2982 RMK A01 T01050012  RH  053%=      5-min Rain = 0
KSP2 200127Z 18006KT 11/01 A2982 RMK A01 T01060013  RH  053%=      5-min Rain = 0
KSP2 200128Z 18006KT 11/01 A2982 RMK A01 T01060013  RH  053%=      5-min Rain = 0
KSP2 200129Z 18006KT 11/01 A2982 RMK A01 T01060014  RH  053%=      5-min Rain = 0
KSP2 200130Z 18005KT 11/02 A2982 RMK A01 T01070015  RH  053%=      5-min Rain = 0
KSP2 200131Z 18005KT 11/02 A2982 RMK A01 T01070016  RH  053%=      5-min Rain = 0
KSP2 200132Z 18006KT 11/02 A2982 RMK A01 T01070016  RH  053%=      5-min Rain = 0
KSP2 200133Z 18006KT 11/02 A2982 RMK A01 T01080016  RH  053%=      5-min Rain = 0
KSP2 200134Z 18006KT 11/02 A2982 RMK A01 T01090017  RH  053%=      5-min Rain = 0
KSP2 200135Z 18007KT 11/02 A2982 RMK A01 T01100016  RH  053%=      5-min Rain = 0
KSP2 200136Z 18007KT 11/02 A2982 RMK A01 T01100016  RH  052%=      5-min Rain = 0
KSP2 200137Z 18007KT 11/02 A2982 RMK A01 T01110016  RH  052%=      5-min Rain = 0
KSP2 200138Z 18007KT 11/02 A2982 RMK A01 T01110016  RH  052%=      5-min Rain = 0
KSP2 200139Z 18007KT 11/02 A2982 RMK A01 T01120016  RH  052%=      5-min Rain = 0
KSP2 200140Z 18006KT 11/02 A2982 RMK A01 T01110016  RH  052%=      5-min Rain = 0
KSP2 200141Z 18006KT 11/02 A2982 RMK A01 T01120016  RH  052%=      5-min Rain = 0
KSP2 200142Z 18007KT 11/02 A2982 RMK A01 T01110017  RH  052%=      5-min Rain = 0
KSP2 200143Z 18007KT 11/02 A2982 RMK A01 T01110017  RH  052%=      5-min Rain = 0
KSP2 200144Z 18007KT 11/02 A2982 RMK A01 T01110017  RH  052%=      5-min Rain = 0
KSP2 200145Z 18007KT 11/02 A2982 RMK A01 T01100017  RH  053%=      5-min Rain = 0
KSP2 200146Z 18007KT 11/02 A2982 RMK A01 T01110018  RH  053%=      5-min Rain = 0
KSP2 200147Z 18007KT 11/02 A2982 RMK A01 T01100018  RH  053%=      5-min Rain = 0
KSP2 200148Z 18007KT 11/02 A2982 RMK A01 T01110018  RH  053%=      5-min Rain = 0
KSP2 200149Z 18007KT 11/02 A2982 RMK A01 T01120019  RH  053%=      5-min Rain = 0
KSP2 200150Z 18007KT 11/02 A2982 RMK A01 T01120019  RH  052%=      5-min Rain = 0
KSP2 200151Z 18007KT 11/02 A2982 RMK A01 T01120019  RH  052%=      5-min Rain = 0
KSP2 200152Z 18006KT 11/02 A2982 RMK A01 T01120019  RH  052%=      5-min Rain = 0
KSP2 200153Z 18006KT 11/02 A2982 RMK A01 T01120019  RH  053%=      5-min Rain = 0
KSP2 200154Z 18006KT 11/02 A2982 RMK A01 T01120019  RH  053%=      5-min Rain = 0
KSP2 200155Z 18006KT 11/02 A2982 RMK A01 T01120019  RH  053%=      5-min Rain = 0
KSP2 200156Z 18006KT 11/02 A2982 RMK A01 T01120019  RH  053%=      5-min Rain = 0
KSP2 200157Z 18006KT 11/02 A2981 RMK A01 T01110019  RH  053%=      5-min Rain = 0
KSP2 200158Z 18007KT 11/02 A2981 RMK A01 T01110019  RH  053%=      5-min Rain = 0
KSP2 200159Z 18007KT 11/02 A2981 RMK A01 T01110020  RH  053%=      5-min Rain = 0
KSP2 200200Z 18007KT 11/02 A2981 RMK A01 T01110020  RH  054%=      5-min Rain = 0
KSP2 200201Z 17007KT 11/02 A2981 RMK A01 T01110020  RH  054%=      5-min Rain = 0
KSP2 200202Z 17007KT 11/02 A2981 RMK A01 T01110020  RH  054%=      5-min Rain = 0
KSP2 200203Z 17007KT 11/02 A2981 RMK A01 T01110021  RH  054%=      5-min Rain = 0
KSP2 200204Z 18007KT 11/02 A2982 RMK A01 T01110020  RH  054%=      5-min Rain = 0
KSP2 200205Z 17007KT 11/02 A2982 RMK A01 T01110020  RH  054%=      5-min Rain = 0
KSP2 200206Z 18007KT 11/02 A2982 RMK A01 T01110020  RH  053%=      5-min Rain = 0
KSP2 200207Z 18007KT 11/02 A2981 RMK A01 T01120020  RH  053%=      5-min Rain = 0
KSP2 200208Z 18007KT 11/02 A2981 RMK A01 T01120020  RH  053%=      5-min Rain = 0
KSP2 200209Z 18007KT 11/02 A2982 RMK A01 T01130019  RH  053%=      5-min Rain = 0
KSP2 200210Z 18007KT 11/02 A2982 RMK A01 T01130019  RH  053%=      5-min Rain = 0
KSP2 200211Z 18007KT 11/02 A2982 RMK A01 T01130019  RH  052%=      5-min Rain = 0
KSP2 200212Z 18007KT 11/02 A2982 RMK A01 T01130019  RH  052%=      5-min Rain = 0
KSP2 200213Z 18007KT 11/02 A2982 RMK A01 T01140020  RH  053%=      5-min Rain = 0
KSP2 200214Z 18007KT 11/02 A2982 RMK A01 T01140020  RH  053%=      5-min Rain = 0
KSP2 200215Z 18007KT 11/02 A2982 RMK A01 T01140020  RH  053%=      5-min Rain = 0
KSP2 200216Z 18008KT 11/02 A2982 RMK A01 T01140021  RH  053%=      5-min Rain = 0
KSP2 200217Z 18008KT 12/02 A2982 RMK A01 T01150022  RH  053%=      5-min Rain = 0
KSP2 200218Z 18008KT 12/02 A2982 RMK A01 T01170023  RH  053%=      5-min Rain = 0
KSP2 200219Z 18007KT 12/02 A2982 RMK A01 T01180024  RH  053%=      5-min Rain = 0
KSP2 200220Z 18008KT 12/03 A2982 RMK A01 T01190025  RH  053%=      5-min Rain = 0
KSP2 200221Z 18008KT 12/03 A2982 RMK A01 T01190025  RH  052%=      5-min Rain = 0
KSP2 200222Z 18008KT 12/03 A2982 RMK A01 T01200025  RH  052%=      5-min Rain = 0
KSP2 200223Z 18008KT 12/02 A2982 RMK A01 T01210024  RH  051%=      5-min Rain = 0
KSP2 200224Z 18008KT 12/02 A2982 RMK A01 T01230024  RH  051%=      5-min Rain = 0
KSP2 200225Z 18009KT 12/02 A2982 RMK A01 T01240024  RH  051%=      5-min Rain = 0
KSP2 200226Z 18009KT 13/02 A2982 RMK A01 T01250024  RH  050%=      5-min Rain = 0
KSP2 200227Z 18009KT 13/02 A2982 RMK A01 T01260024  RH  050%=      5-min Rain = 0
KSP2 200228Z 18008KT 13/02 A2982 RMK A01 T01260024  RH  050%=      5-min Rain = 0
KSP2 200229Z 18008KT 13/03 A2982 RMK A01 T01270025  RH  050%=      5-min Rain = 0
KSP2 200230Z 18008KT 13/02 A2982 RMK A01 T01270024  RH  050%=      5-min Rain = 0
KSP2 200231Z 18008KT 13/02 A2982 RMK A01 T01270024  RH  049%=      5-min Rain = 0
KSP2 200232Z 18008KT 13/02 A2982 RMK A01 T01280024  RH  049%=      5-min Rain = 0
KSP2 200233Z 18008KT 13/02 A2982 RMK A01 T01280024  RH  049%=      5-min Rain = 0
KSP2 200234Z 18008KT 13/02 A2982 RMK A01 T01290024  RH  049%=      5-min Rain = 0
KSP2 200235Z 18008KT 13/02 A2982 RMK A01 T01290024  RH  049%=      5-min Rain = 0
KSP2 200236Z 18008KT 13/02 A2982 RMK A01 T01290024  RH  049%=      5-min Rain = 0
KSP2 200237Z 18008KT 13/02 A2982 RMK A01 T01300024  RH  049%=      5-min Rain = 0
KSP2 200238Z 18007KT 13/02 A2982 RMK A01 T01290024  RH  049%=      5-min Rain = 0
KSP2 200239Z 18008KT 13/02 A2982 RMK A01 T01300024  RH  049%=      5-min Rain = 0
KSP2 200240Z 18007KT 13/02 A2982 RMK A01 T01290024  RH  049%=      5-min Rain = 0
KSP2 200241Z 18008KT 13/02 A2982 RMK A01 T01290024  RH  049%=      5-min Rain = 0
KSP2 200242Z 18008KT 13/02 A2982 RMK A01 T01290024  RH  049%=      5-min Rain = 0
KSP2 200243Z 18009KT 13/02 A2982 RMK A01 T01290024  RH  049%=      5-min Rain = 0
KSP2 200244Z 18009KT 13/02 A2982 RMK A01 T01290024  RH  049%=      5-min Rain = 0
KSP2 200245Z 18009KT 13/02 A2982 RMK A01 T01290024  RH  049%=      5-min Rain = 0
KSP2 200246Z 18010KT 13/03 A2982 RMK A01 T01290025  RH  049%=      5-min Rain = 0
KSP2 200247Z 18010KT 13/03 A2982 RMK A01 T01310025  RH  049%=      5-min Rain = 0
KSP2 200248Z 18010KT 13/03 A2982 RMK A01 T01320025  RH  048%=      5-min Rain = 0
KSP2 200249Z 18010KT 13/03 A2982 RMK A01 T01330025  RH  048%=      5-min Rain = 0
KSP2 200250Z 18010KT 13/03 A2982 RMK A01 T01330025  RH  048%=      5-min Rain = 0
KSP2 200251Z 18010KT 13/03 A2982 RMK A01 T01330025  RH  048%=      5-min Rain = 0
KSP2 200252Z 18010KT 13/03 A2982 RMK A01 T01340025  RH  048%=      5-min Rain = 0
KSP2 200253Z 18011KT 13/03 A2982 RMK A01 T01340025  RH  048%=      5-min Rain = 0
KSP2 200254Z 18011KT 13/03 A2982 RMK A01 T01340026  RH  048%=      5-min Rain = 0
KSP2 200255Z 18011KT 14/03 A2982 RMK A01 T01360026  RH  047%=      5-min Rain = 0
KSP2 200256Z 18012KT 14/03 A2982 RMK A01 T01370026  RH  047%=      5-min Rain = 0
KSP2 200257Z 18012KT 14/03 A2982 RMK A01 T01370026  RH  047%=      5-min Rain = 0
KSP2 200258Z 18011KT 14/03 A2982 RMK A01 T01370026  RH  047%=      5-min Rain = 0
KSP2 200259Z 18011KT 14/03 A2982 RMK A01 T01370026  RH  047%=      5-min Rain = 0
KSP2 200300Z 18011KT 14/03 A2982 RMK A01 T01370026  RH  047%=      5-min Rain = 0
KSP2 200301Z 18011KT 14/03 A2982 RMK A01 T01370026  RH  047%=      5-min Rain = 0
KSP2 200302Z 18011KT 14/03 A2982 RMK A01 T01370026  RH  047%=      5-min Rain = 0
KSP2 200303Z 18011KT 14/03 A2982 RMK A01 T01360026  RH  047%=      5-min Rain = 0
KSP2 200304Z 18011KT 14/03 A2982 RMK A01 T01360026  RH  047%=      5-min Rain = 0
KSP2 200305Z 18012KT 14/03 A2982 RMK A01 T01360026  RH  047%=      5-min Rain = 0
KSP2 200306Z 18012KT 14/03 A2982 RMK A01 T01360027  RH  047%=      5-min Rain = 0
KSP2 200307Z 18011KT 14/03 A2982 RMK A01 T01370027  RH  047%=      5-min Rain = 0
KSP2 200308Z 18012KT 14/03 A2982 RMK A01 T01360026  RH  047%=      5-min Rain = 0
KSP2 200309Z 18010KT 14/03 A2982 RMK A01 T01360027  RH  047%=      5-min Rain = 0
KSP2 200310Z 18011KT 14/03 A2982 RMK A01 T01360026  RH  047%=      5-min Rain = 0
KSP2 200311Z 18012KT 14/03 A2982 RMK A01 T01360027  RH  048%=      5-min Rain = 0
KSP2 200312Z 18011KT 14/03 A2982 RMK A01 T01370027  RH  048%=      5-min Rain = 0
KSP2 200313Z 18012KT 14/03 A2982 RMK A01 T01370027  RH  047%=      5-min Rain = 0
KSP2 200314Z 18011KT 14/03 A2982 RMK A01 T01370027  RH  047%=      5-min Rain = 0
KSP2 200315Z 18012KT 14/03 A2982 RMK A01 T01360027  RH  047%=      5-min Rain = 0
KSP2 200316Z 18011KT 14/03 A2982 RMK A01 T01360027  RH  047%=      5-min Rain = 0
KSP2 200317Z 18011KT 14/03 A2982 RMK A01 T01360027  RH  048%=      5-min Rain = 0
KSP2 200318Z 18010KT 14/03 A2982 RMK A01 T01360027  RH  047%=      5-min Rain = 0
KSP2 200319Z 18010KT 14/03 A2982 RMK A01 T01360027  RH  047%=      5-min Rain = 0
KSP2 200320Z 18012KT 14/03 A2982 RMK A01 T01360027  RH  048%=      5-min Rain = 0
KSP2 200321Z 18011KT 14/03 A2982 RMK A01 T01360026  RH  048%=      5-min Rain = 0
KSP2 200322Z 18010KT 14/03 A2982 RMK A01 T01360027  RH  048%=      5-min Rain = 0
KSP2 200323Z 18009KT 14/03 A2982 RMK A01 T01350026  RH  048%=      5-min Rain = 0
KSP2 200324Z 18009KT 13/03 A2982 RMK A01 T01340026  RH  048%=      5-min Rain = 0
KSP2 200325Z 18009KT 13/03 A2982 RMK A01 T01320026  RH  048%=      5-min Rain = 0
KSP2 200326Z 18010KT 13/03 A2982 RMK A01 T01320026  RH  049%=      5-min Rain = 0
KSP2 200327Z 18010KT 13/03 A2982 RMK A01 T01320026  RH  049%=      5-min Rain = 0
KSP2 200328Z 18009KT 13/03 A2982 RMK A01 T01320026  RH  049%=      5-min Rain = 0
KSP2 200329Z 18009KT 13/03 A2982 RMK A01 T01310026  RH  049%=      5-min Rain = 0
KSP2 200330Z 18009KT 13/03 A2982 RMK A01 T01310027  RH  049%=      5-min Rain = 0
KSP2 200331Z 18010KT 13/03 A2982 RMK A01 T01310027  RH  049%=      5-min Rain = 0
KSP2 200332Z 18010KT 13/03 A2982 RMK A01 T01310027  RH  049%=      5-min Rain = 0
KSP2 200333Z 18009KT 13/03 A2982 RMK A01 T01310027  RH  049%=      5-min Rain = 0
KSP2 200334Z 18010KT 13/03 A2982 RMK A01 T01310027  RH  049%=      5-min Rain = 0
KSP2 200335Z 18010KT 13/03 A2982 RMK A01 T01310027  RH  049%=      5-min Rain = 0
KSP2 200336Z 18011KT 13/03 A2982 RMK A01 T01310027  RH  049%=      5-min Rain = 0
KSP2 200337Z 18011KT 13/03 A2982 RMK A01 T01300027  RH  049%=      5-min Rain = 0
KSP2 200338Z 18010KT 13/03 A2982 RMK A01 T01300027  RH  050%=      5-min Rain = 0
KSP2 200339Z 18009KT 13/03 A2982 RMK A01 T01300027  RH  050%=      5-min Rain = 0
KSP2 200340Z 18010KT 13/03 A2982 RMK A01 T01290027  RH  050%=      5-min Rain = 0
KSP2 200341Z 18010KT 13/03 A2982 RMK A01 T01280027  RH  050%=      5-min Rain = 0
KSP2 200342Z 18009KT 13/03 A2982 RMK A01 T01270027  RH  050%=      5-min Rain = 0
KSP2 200343Z 18009KT 13/03 A2982 RMK A01 T01260026  RH  051%=      5-min Rain = 0
KSP2 200344Z 18009KT 13/03 A2982 RMK A01 T01250026  RH  051%=      5-min Rain = 0
KSP2 200345Z 18008KT 12/03 A2982 RMK A01 T01240026  RH  051%=      5-min Rain = 0
KSP2 200346Z 18009KT 12/03 A2982 RMK A01 T01230026  RH  052%=      5-min Rain = 0
KSP2 200347Z 18008KT 12/03 A2982 RMK A01 T01230026  RH  052%=      5-min Rain = 0
KSP2 200348Z 18008KT 12/03 A2982 RMK A01 T01220026  RH  052%=      5-min Rain = 0
KSP2 200349Z 18008KT 12/03 A2982 RMK A01 T01210026  RH  052%=      5-min Rain = 0
KSP2 200350Z 18008KT 12/03 A2982 RMK A01 T01210026  RH  052%=      5-min Rain = 0
KSP2 200351Z 18008KT 12/03 A2982 RMK A01 T01210026  RH  052%=      5-min Rain = 0
KSP2 200352Z 18009KT 12/03 A2982 RMK A01 T01210026  RH  052%=      5-min Rain = 0
KSP2 200353Z 18008KT 12/03 A2982 RMK A01 T01210026  RH  052%=      5-min Rain = 0
KSP2 200354Z 18009KT 12/03 A2982 RMK A01 T01200026  RH  052%=      5-min Rain = 0
KSP2 200355Z 18009KT 12/03 A2982 RMK A01 T01200026  RH  053%=      5-min Rain = 0
KSP2 200356Z 18010KT 12/03 A2982 RMK A01 T01190025  RH  053%=      5-min Rain = 0
KSP2 200357Z 18009KT 12/03 A2982 RMK A01 T01190026  RH  053%=      5-min Rain = 0
KSP2 200358Z 18009KT 12/03 A2982 RMK A01 T01190026  RH  053%=      5-min Rain = 0
KSP2 200359Z 18009KT 12/03 A2982 RMK A01 T01180026  RH  053%=      5-min Rain = 0
KSP2 200400Z 18009KT 12/03 A2982 RMK A01 T01180026  RH  053%=      5-min Rain = 0
KSP2 200401Z 18009KT 12/03 A2982 RMK A01 T01180026  RH  053%=      5-min Rain = 0
KSP2 200402Z 18009KT 12/03 A2982 RMK A01 T01180026  RH  053%=      5-min Rain = 0
KSP2 200403Z 18008KT 12/03 A2982 RMK A01 T01180026  RH  053%=      5-min Rain = 0
KSP2 200404Z 19008KT 12/03 A2982 RMK A01 T01170026  RH  054%=      5-min Rain = 0
KSP2 200405Z 19008KT 12/03 A2982 RMK A01 T01170026  RH  054%=      5-min Rain = 0
KSP2 200406Z 19009KT 12/03 A2982 RMK A01 T01160026  RH  054%=      5-min Rain = 0
KSP2 200407Z 19009KT 12/03 A2982 RMK A01 T01160027  RH  054%=      5-min Rain = 0
KSP2 200408Z 19010KT 12/03 A2982 RMK A01 T01160026  RH  054%=      5-min Rain = 0
KSP2 200409Z 18009KT 12/03 A2982 RMK A01 T01160026  RH  054%=      5-min Rain = 0
KSP2 200410Z 18009KT 12/03 A2982 RMK A01 T01150026  RH  054%=      5-min Rain = 0
KSP2 200411Z 19009KT 12/03 A2982 RMK A01 T01150026  RH  054%=      5-min Rain = 0
KSP2 200412Z 18009KT 12/03 A2982 RMK A01 T01150026  RH  054%=      5-min Rain = 0
KSP2 200413Z 19009KT 12/03 A2982 RMK A01 T01150026  RH  054%=      5-min Rain = 0
KSP2 200414Z 18009KT 11/03 A2982 RMK A01 T01140026  RH  055%=      5-min Rain = 0
KSP2 200415Z 19009KT 11/03 A2982 RMK A01 T01140026  RH  055%=      5-min Rain = 0
KSP2 200416Z 18008KT 11/03 A2982 RMK A01 T01140026  RH  055%=      5-min Rain = 0
KSP2 200417Z 18008KT 11/03 A2982 RMK A01 T01130026  RH  055%=      5-min Rain = 0
KSP2 200418Z 18008KT 11/03 A2982 RMK A01 T01130026  RH  055%=      5-min Rain = 0
KSP2 200419Z 18008KT 11/03 A2982 RMK A01 T01120026  RH  055%=      5-min Rain = 0
KSP2 200420Z 18008KT 11/03 A2982 RMK A01 T01120026  RH  055%=      5-min Rain = 0
KSP2 200421Z 19008KT 11/03 A2982 RMK A01 T01120027  RH  056%=      5-min Rain = 0
KSP2 200422Z 19008KT 11/03 A2982 RMK A01 T01120027  RH  056%=      5-min Rain = 0
KSP2 200423Z 19008KT 11/03 A2982 RMK A01 T01130028  RH  056%=      5-min Rain = 0
KSP2 200424Z 19008KT 12/03 A2982 RMK A01 T01150029  RH  055%=      5-min Rain = 0
KSP2 200425Z 19009KT 12/03 A2982 RMK A01 T01160029  RH  055%=      5-min Rain = 0
KSP2 200426Z 19009KT 12/03 A2981 RMK A01 T01170029  RH  055%=      5-min Rain = 0
KSP2 200427Z 19009KT 12/03 A2981 RMK A01 T01180029  RH  055%=      5-min Rain = 0
KSP2 200428Z 19009KT 12/03 A2981 RMK A01 T01180029  RH  055%=      5-min Rain = 0
KSP2 200429Z 19009KT 12/03 A2981 RMK A01 T01190030  RH  054%=      5-min Rain = 0
KSP2 200430Z 18009KT 12/03 A2981 RMK A01 T01190030  RH  054%=      5-min Rain = 0
KSP2 200431Z 18010KT 12/03 A2982 RMK A01 T01200030  RH  054%=      5-min Rain = 0
KSP2 200432Z 19009KT 12/03 A2981 RMK A01 T01200030  RH  054%=      5-min Rain = 0
KSP2 200433Z 19009KT 12/03 A2981 RMK A01 T01210030  RH  054%=      5-min Rain = 0
KSP2 200434Z 19009KT 12/03 A2981 RMK A01 T01210030  RH  054%=      5-min Rain = 0
KSP2 200435Z 19008KT 12/03 A2981 RMK A01 T01210030  RH  054%=      5-min Rain = 0
KSP2 200436Z 19009KT 12/03 A2981 RMK A01 T01210030  RH  054%=      5-min Rain = 0
KSP2 200437Z 19009KT 12/03 A2981 RMK A01 T01210031  RH  054%=      5-min Rain = 0
KSP2 200438Z 19008KT 12/03 A2981 RMK A01 T01210031  RH  054%=      5-min Rain = 0
KSP2 200439Z 19008KT 12/03 A2981 RMK A01 T01210031  RH  054%=      5-min Rain = 0
KSP2 200440Z 19009KT 12/03 A2981 RMK A01 T01210031  RH  054%=      5-min Rain = 0
KSP2 200441Z 19009KT 12/03 A2981 RMK A01 T01210031  RH  054%=      5-min Rain = 0
KSP2 200442Z 19008KT 12/03 A2981 RMK A01 T01220032  RH  054%=      5-min Rain = 0
KSP2 200443Z 19009KT 12/03 A2981 RMK A01 T01220032  RH  054%=      5-min Rain = 0
KSP2 200444Z 19009KT 12/03 A2981 RMK A01 T01230032  RH  054%=      5-min Rain = 0
KSP2 200445Z 19009KT 12/03 A2981 RMK A01 T01240033  RH  054%=      5-min Rain = 0
KSP2 200446Z 19009KT 13/03 A2981 RMK A01 T01250033  RH  053%=      5-min Rain = 0
KSP2 200447Z 19008KT 13/03 A2981 RMK A01 T01260033  RH  053%=      5-min Rain = 0
KSP2 200448Z 19009KT 13/03 A2981 RMK A01 T01250033  RH  053%=      5-min Rain = 0
KSP2 200449Z 19008KT 13/03 A2981 RMK A01 T01250033  RH  053%=      5-min Rain = 0
KSP2 200450Z 19008KT 13/03 A2981 RMK A01 T01260033  RH  053%=      5-min Rain = 0
KSP2 200451Z 19009KT 13/03 A2981 RMK A01 T01260033  RH  053%=      5-min Rain = 0
KSP2 200452Z 19008KT 13/03 A2981 RMK A01 T01250033  RH  053%=      5-min Rain = 0
KSP2 200453Z 19008KT 13/03 A2981 RMK A01 T01250033  RH  053%=      5-min Rain = 0
KSP2 200454Z 19008KT 13/03 A2981 RMK A01 T01250034  RH  054%=      5-min Rain = 0
KSP2 200455Z 19008KT 13/03 A2981 RMK A01 T01250034  RH  054%=      5-min Rain = 0
KSP2 200456Z 20008KT 13/03 A2981 RMK A01 T01250034  RH  054%=      5-min Rain = 0
KSP2 200457Z 19008KT 13/03 A2981 RMK A01 T01250034  RH  054%=      5-min Rain = 0
KSP2 200458Z 19008KT 12/03 A2981 RMK A01 T01240034  RH  054%=      5-min Rain = 0
KSP2 200459Z 20008KT 12/03 A2981 RMK A01 T01240034  RH  054%=      5-min Rain = 0
KSP2 200500Z 20008KT 12/03 A2981 RMK A01 T01240034  RH  054%=      5-min Rain = 0
KSP2 200501Z 20008KT 12/04 A2981 RMK A01 T01240035  RH  054%=      5-min Rain = 0
KSP2 200502Z 19009KT 12/04 A2981 RMK A01 T01240035  RH  054%=      5-min Rain = 0
KSP2 200503Z 19008KT 13/04 A2981 RMK A01 T01260036  RH  054%=      5-min Rain = 0
KSP2 200504Z 20008KT 13/04 A2981 RMK A01 T01260036  RH  054%=      5-min Rain = 0
KSP2 200505Z 19009KT 13/04 A2981 RMK A01 T01270036  RH  054%=      5-min Rain = 0
KSP2 200506Z 19009KT 13/04 A2981 RMK A01 T01280037  RH  054%=      5-min Rain = 0
KSP2 200507Z 19009KT 13/04 A2981 RMK A01 T01290037  RH  054%=      5-min Rain = 0
KSP2 200508Z 19009KT 13/04 A2981 RMK A01 T01290037  RH  053%=      5-min Rain = 0
KSP2 200509Z 19009KT 13/04 A2981 RMK A01 T01290037  RH  053%=      5-min Rain = 0
KSP2 200510Z 20010KT 13/04 A2981 RMK A01 T01290037  RH  054%=      5-min Rain = 0
KSP2 200511Z 19010KT 13/04 A2981 RMK A01 T01300038  RH  054%=      5-min Rain = 0
KSP2 200512Z 19010KT 13/04 A2981 RMK A01 T01310038  RH  053%=      5-min Rain = 0
KSP2 200513Z 19010KT 13/04 A2981 RMK A01 T01310038  RH  053%=      5-min Rain = 0
KSP2 200514Z 20009KT 13/04 A2982 RMK A01 T01320039  RH  053%=      5-min Rain = 0
KSP2 200515Z 19010KT 13/04 A2982 RMK A01 T01310038  RH  053%=      5-min Rain = 0
KSP2 200516Z 19010KT 13/04 A2982 RMK A01 T01320039  RH  053%=      5-min Rain = 0
KSP2 200517Z 19009KT 13/04 A2982 RMK A01 T01330039  RH  053%=      5-min Rain = 0
KSP2 200518Z 19010KT 13/04 A2982 RMK A01 T01330040  RH  053%=      5-min Rain = 0
KSP2 200519Z 19010KT 13/04 A2982 RMK A01 T01330040  RH  053%=      5-min Rain = 0
KSP2 200520Z 20008KT 13/04 A2982 RMK A01 T01330040  RH  053%=      5-min Rain = 0
KSP2 200521Z 19009KT 13/04 A2982 RMK A01 T01330040  RH  053%=      5-min Rain = 0
KSP2 200522Z 19010KT 13/04 A2982 RMK A01 T01340041  RH  053%=      5-min Rain = 0
KSP2 200523Z 19010KT 13/04 A2982 RMK A01 T01340041  RH  053%=      5-min Rain = 0
KSP2 200524Z 19010KT 14/04 A2982 RMK A01 T01350041  RH  053%=      5-min Rain = 0
KSP2 200525Z 19010KT 14/04 A2982 RMK A01 T01360041  RH  053%=      5-min Rain = 0
KSP2 200526Z 20010KT 14/04 A2982 RMK A01 T01360042  RH  053%=      5-min Rain = 0
KSP2 200527Z 19012KT 14/04 A2982 RMK A01 T01360042  RH  053%=      5-min Rain = 0
KSP2 200528Z 19010KT 14/04 A2982 RMK A01 T01370042  RH  052%=      5-min Rain = 0
KSP2 200529Z 19010KT 14/04 A2982 RMK A01 T01380042  RH  052%=      5-min Rain = 0
KSP2 200530Z 19010KT 14/04 A2982 RMK A01 T01380042  RH  052%=      5-min Rain = 0
KSP2 200531Z 19010KT 14/04 A2982 RMK A01 T01380042  RH  052%=      5-min Rain = 0
KSP2 200532Z 19011KT 14/04 A2982 RMK A01 T01380043  RH  053%=      5-min Rain = 0
KSP2 200533Z 19013KT 14/04 A2981 RMK A01 T01380043  RH  053%=      5-min Rain = 0
KSP2 200534Z 19011KT 14/04 A2981 RMK A01 T01390043  RH  052%=      5-min Rain = 0
KSP2 200535Z 19011KT 14/04 A2981 RMK A01 T01390043  RH  052%=      5-min Rain = 0
KSP2 200536Z 19012KT 14/04 A2981 RMK A01 T01390043  RH  052%=      5-min Rain = 0
KSP2 200537Z 20010KT 14/04 A2981 RMK A01 T01390043  RH  052%=      5-min Rain = 0
KSP2 200538Z 19012KT 14/04 A2981 RMK A01 T01390044  RH  053%=      5-min Rain = 0
KSP2 200539Z 19010KT 14/04 A2981 RMK A01 T01390044  RH  053%=      5-min Rain = 0
KSP2 200540Z 19010KT 14/04 A2981 RMK A01 T01390044  RH  053%=      5-min Rain = 0
KSP2 200541Z 19011KT 14/04 A2981 RMK A01 T01380044  RH  053%=      5-min Rain = 0
KSP2 200542Z 19010KT 14/04 A2981 RMK A01 T01380044  RH  053%=      5-min Rain = 0
KSP2 200543Z 20010KT 14/04 A2982 RMK A01 T01370044  RH  053%=      5-min Rain = 0
KSP2 200544Z 19011KT 14/05 A2982 RMK A01 T01370045  RH  054%=      5-min Rain = 0
KSP2 200545Z 20010KT 14/05 A2982 RMK A01 T01370045  RH  054%=      5-min Rain = 0
KSP2 200546Z 19011KT 14/05 A2982 RMK A01 T01370045  RH  054%=      5-min Rain = 0
KSP2 200547Z 19011KT 14/05 A2982 RMK A01 T01370045  RH  054%=      5-min Rain = 0
KSP2 200548Z 19011KT 14/05 A2982 RMK A01 T01370046  RH  054%=      5-min Rain = 0
KSP2 200549Z 19011KT 14/05 A2982 RMK A01 T01370046  RH  054%=      5-min Rain = 0
KSP2 200550Z 19011KT 14/05 A2982 RMK A01 T01370047  RH  054%=      5-min Rain = 0
KSP2 200551Z 20012KT 14/05 A2982 RMK A01 T01380047  RH  054%=      5-min Rain = 0
KSP2 200552Z 20011KT 14/05 A2982 RMK A01 T01370047  RH  054%=      5-min Rain = 0
KSP2 200553Z 19011KT 14/05 A2982 RMK A01 T01380047  RH  054%=      5-min Rain = 0
KSP2 200554Z 20012KT 14/05 A2982 RMK A01 T01380048  RH  054%=      5-min Rain = 0
KSP2 200555Z 19012G17KT 14/05 A2982 RMK A01 T01380048  RH  055%=      5-min Rain = 0
KSP2 200556Z 19012KT 14/05 A2982 RMK A01 T01390049  RH  055%=      5-min Rain = 0
KSP2 200557Z 20013KT 14/05 A2982 RMK A01 T01390049  RH  055%=      5-min Rain = 0
KSP2 200558Z 20013KT 14/05 A2981 RMK A01 T01390050  RH  055%=      5-min Rain = 0
KSP2 200559Z 20011KT 14/05 A2981 RMK A01 T01400051  RH  055%=      5-min Rain = 0

Page generated in 0.0695 seconds.